ECMWFFLT1_250_spd_000.txt.gz
Wind_Speed
35 34 34 33 33 32 32 31 31 31 31 31 31 31 31 31 31 30 30 31 33 36 39 41 43 46 50 54 55 54 53 54 54 55 55 52 51 51 50 49 45 40 39 40 42 42 43 44 43 43 44 44 41 39 38 37 37 37 36 34 32 31 30
36 36 36 35 35 35 34 33 32 32 32 33 33 33 33 33 32 32 32 32 34 36 38 40 42 44 47 51 54 55 54 53 53 53 54 54 52 51 52 51 47 42 40 42 43 43 46 49 48 45 45 44 43 41 40 40 40 39 39 37 36 34 33
36 37 37 37 37 37 37 36 35 34 34 34 35 35 35 35 35 34 33 34 34 36 38 40 41 43 45 48 52 56 57 56 53 50 51 52 53 53 52 52 50 46 44 44 45 46 51 54 51 47 45 44 44 44 42 42 42 42 41 39 38 37 35
37 37 38 38 39 39 39 38 38 37 36 36 36 36 36 37 37 36 35 35 36 36 38 39 41 42 44 46 49 53 57 58 56 53 50 49 52 54 55 55 54 52 51 49 48 49 54 56 53 50 48 45 46 47 46 44 43 44 43 42 41 40 39
37 38 39 39 40 40 40 40 40 39 39 38 38 38 38 38 38 38 38 37 38 38 39 40 41 42 43 45 48 50 53 56 56 55 54 51 51 54 57 58 58 56 56 56 54 52 55 57 55 54 52 49 48 49 49 47 46 46 45 45 45 44 41
38 39 40 40 41 41 40 41 41 41 41 40 40 40 39 39 39 39 40 40 39 40 40 41 42 42 43 44 46 48 50 52 53 53 55 56 55 55 57 59 61 60 60 61 60 57 57 58 58 56 56 55 53 52 51 51 50 48 48 48 47 47 45
41 40 41 41 42 42 42 42 42 42 42 42 42 41 41 41 40 41 41 42 42 41 42 42 43 44 44 45 46 47 49 50 51 51 53 58 60 58 58 59 61 63 63 64 64 63 61 61 61 60 58 59 59 57 55 54 53 52 52 51 50 50 49
45 43 43 42 42 43 43 43 43 43 43 44 44 43 43 42 42 42 42 43 43 43 43 44 44 45 46 46 47 48 49 50 51 51 52 57 62 63 61 60 61 63 64 65 66 66 65 65 65 64 62 61 61 62 60 58 57 56 56 54 53 53 54
48 47 46 45 44 44 44 44 45 45 45 45 45 45 45 44 44 43 44 44 44 45 45 45 46 46 47 48 49 49 50 51 51 52 52 54 61 66 66 65 63 63 65 66 67 67 67 67 66 67 66 64 63 63 62 62 61 61 60 57 56 57 57
51 50 49 49 48 47 46 46 46 46 46 46 46 47 47 47 46 46 46 45 45 45 46 47 47 48 49 49 50 52 52 53 53 54 55 55 57 62 67 69 68 66 65 67 69 70 69 69 68 68 67 67 66 65 64 63 64 65 64 61 60 60 60
53 52 52 51 51 50 50 49 48 47 48 48 48 48 49 48 48 48 48 47 47 47 48 48 49 49 50 51 52 53 54 55 56 57 58 58 58 60 63 67 69 69 68 67 69 70 71 71 71 71 71 70 69 68 67 67 67 68 67 65 64 64 63
57 56 54 54 53 53 52 52 51 50 50 50 50 50 50 51 50 50 50 50 50 50 50 50 50 51 51 52 53 54 56 57 58 59 60 61 61 62 63 64 67 69 70 70 69 70 70 70 70 71 73 74 73 72 70 69 70 71 70 68 68 68 66
61 59 58 57 56 55 54 54 54 53 53 52 52 52 52 53 53 53 53 52 52 52 52 52 53 53 53 54 55 56 57 58 59 60 61 63 64 65 65 66 67 68 70 71 72 71 71 71 70 69 70 73 74 75 73 72 72 74 74 72 71 72 71
64 62 61 60 59 57 56 56 56 56 56 55 55 55 55 55 55 55 56 56 55 55 55 55 55 55 56 56 57 58 59 60 61 62 63 64 65 66 67 68 69 70 71 72 73 73 73 73 73 72 71 71 72 72 73 73 73 75 77 76 75 75 74
65 65 65 64 62 60 59 59 59 59 59 59 59 59 59 58 58 58 59 59 59 58 58 58 58 58 59 59 60 60 61 61 62 64 65 66 66 67 68 69 70 71 72 74 75 75 76 76 76 75 74 73 73 73 72 72 71 72 74 76 77 77 77
67 67 67 66 65 63 62 61 61 61 62 62 62 62 62 62 62 62 62 63 63 62 62 61 61 61 62 62 62 62 63 63 64 65 66 67 68 69 70 71 71 72 73 74 75 76 77 78 78 78 78 77 77 76 76 74 73 72 72 74 75 76 77
70 68 68 67 67 65 64 64 63 64 64 65 65 65 65 65 65 65 66 66 66 66 65 65 64 64 64 64 64 64 65 65 65 65 66 67 68 70 71 72 73 73 74 75 76 77 78 79 79 80 80 80 79 79 79 78 76 75 74 74 76 76 76
73 72 70 69 68 68 67 66 66 67 67 68 68 69 69 69 69 69 69 69 69 69 69 68 68 68 67 67 67 67 67 67 67 67 67 68 70 71 72 73 73 74 75 76 77 77 78 78 79 80 81 81 81 81 80 79 78 77 76 75 76 77 77
77 76 75 73 72 70 69 68 68 69 69 70 72 73 73 72 72 72 72 72 72 72 71 71 71 71 71 70 70 70 70 69 69 69 70 71 72 72 73 73 73 74 74 75 76 77 78 78 79 80 80 81 82 82 81 81 80 78 77 76 76 77 78
81 80 79 77 76 74 72 71 71 71 71 73 75 76 76 75 75 75 76 75 75 75 74 74 74 74 74 74 73 73 73 73 73 73 74 74 74 74 74 74 75 75 75 76 77 77 78 78 79 79 80 80 81 81 81 81 81 79 78 77 77 78 79
82 82 81 80 79 77 76 75 75 74 74 76 78 79 78 78 78 79 79 78 77 77 77 77 77 77 77 77 77 76 76 76 76 77 77 77 77 77 77 77 77 77 77 78 78 79 79 79 79 79 80 80 80 81 81 81 81 80 79 78 78 78 79
82 82 82 81 80 79 79 79 79 78 78 79 81 81 81 80 81 81 81 79 79 79 79 79 79 80 80 80 80 79 79 80 80 80 80 80 80 80 80 81 81 80 80 80 80 81 82 82 81 81 81 81 81 81 81 81 81 80 79 78 78 78 79
82 82 82 82 81 79 79 80 80 80 82 84 85 85 84 84 84 84 83 81 81 80 81 81 81 81 82 82 82 82 83 83 83 82 82 82 83 83 83 83 83 83 83 83 83 83 84 85 84 84 84 84 83 83 82 82 82 81 80 78 78 78 79
82 83 83 82 80 79 79 81 81 82 84 87 88 88 87 87 88 88 87 85 84 83 82 83 83 83 83 83 84 84 85 85 85 85 85 85 85 85 85 84 85 85 85 86 86 86 87 87 87 87 87 87 87 86 85 85 84 83 82 80 79 79 79
82 83 83 82 79 74 74 77 80 83 87 89 90 90 90 90 91 91 91 90 89 87 86 86 85 84 84 85 85 86 86 86 87 86 86 87 87 87 87 86 86 86 87 87 88 88 89 89 90 90 90 90 90 90 89 88 88 87 86 84 82 81 81
83 83 82 81 77 72 71 74 78 82 87 90 91 92 92 93 94 94 94 93 92 91 90 89 89 88 88 88 88 87 87 87 87 87 88 88 88 88 88 88 87 87 88 89 89 90 90 91 91 92 92 92 92 92 92 92 91 91 90 88 86 85 85
81 82 82 80 77 75 77 78 78 82 87 89 90 92 93 93 94 95 95 96 95 94 93 92 91 91 92 92 91 91 90 89 89 90 90 90 90 90 89 89 88 89 89 89 90 90 91 91 92 93 94 94 94 95 95 94 94 93 93 92 90 89 89
77 79 79 79 77 76 77 78 80 83 86 87 89 91 92 92 92 94 96 98 99 97 95 93 93 94 94 94 94 93 93 93 93 93 93 94 93 93 93 92 91 91 91 92 92 92 92 92 93 94 95 96 97 97 97 96 95 95 94 93 92 91 91
73 73 75 76 76 75 75 78 84 86 86 87 88 88 90 91 92 94 96 98 100 99 97 96 95 96 96 95 95 95 95 95 95 96 96 97 97 96 95 95 94 94 94 94 95 95 96 96 97 97 98 99 99 99 98 97 97 95 94 93 92 92 92
69 69 69 70 71 74 76 79 83 85 86 87 87 87 89 91 92 93 94 97 100 99 98 97 97 96 96 96 96 96 95 95 96 97 98 98 98 97 97 96 95 94 95 95 97 98 99 100 100 100 101 103 103 102 101 100 98 96 94 92 91 91 91
66 65 65 65 68 72 75 77 79 81 83 85 86 87 90 91 92 92 93 97 99 99 98 98 97 95 94 94 94 95 96 96 96 97 97 98 97 97 96 95 94 93 94 95 96 98 100 101 101 102 104 105 105 105 104 104 102 99 95 92 91 90 90
62 62 63 63 65 69 72 74 75 77 80 83 85 87 89 90 90 90 92 96 99 99 98 98 97 94 90 88 88 90 91 92 93 94 95 96 96 95 94 93 92 92 92 92 93 96 99 101 102 103 106 106 104 104 105 105 103 101 97 95 93 92 92
57 58 61 62 64 67 70 72 74 76 79 82 84 85 86 87 88 89 91 95 98 99 99 99 98 95 89 85 83 83 84 85 86 87 88 89 90 91 91 91 90 89 88 87 89 93 97 100 103 105 105 103 101 101 102 102 101 99 98 97 96 96 95
53 56 59 61 62 65 69 71 73 76 78 80 81 83 84 85 87 88 91 95 98 99 100 100 98 95 92 88 86 83 82 81 81 81 81 82 81 81 80 80 79 78 78 79 82 87 93 99 102 102 101 99 96 95 94 93 92 92 94 96 98 99 100
54 55 58 60 62 65 67 71 74 76 77 78 79 80 83 84 86 88 91 93 96 97 98 99 98 95 91 89 87 84 82 80 79 78 75 73 70 67 66 66 66 68 69 72 76 83 89 93 95 95 94 91 86 82 79 78 79 81 84 87 91 95 99
57 60 61 62 62 63 65 69 74 76 76 76 77 79 81 83 85 87 89 91 92 94 95 96 94 91 88 85 82 80 79 79 78 75 70 66 63 60 59 60 62 63 66 71 76 81 83 85 87 88 87 82 75 71 70 69 71 72 74 76 80 85 91
60 66 67 61 58 61 65 68 71 73 74 75 76 77 80 82 84 86 88 89 90 91 92 91 89 86 83 80 76 75 74 75 74 70 66 62 59 58 58 60 61 64 68 73 75 75 76 80 83 83 80 75 70 67 65 64 65 66 67 69 72 76 82

ECMWFFLT1_250_spd_003.txt.gz
Wind_Speed
31 31 30 30 30 30 30 30 29 29 29 29 28 29 29 29 29 29 28 28 28 29 31 33 37 42 47 49 50 49 46 45 46 47 46 46 46 47 47 48 49 48 46 46 47 47 46 45 45 46 47 47 46 45 45 44 43 41 40 39 37 36 34
32 32 32 32 31 30 29 29 30 30 30 30 29 29 29 29 30 30 29 29 29 30 31 33 35 39 44 48 52 53 49 44 44 47 48 47 48 49 47 47 48 48 47 47 49 50 48 47 47 49 50 49 48 47 47 47 47 46 44 42 40 39 37
32 33 33 33 32 31 30 30 30 31 31 31 30 30 29 30 30 30 30 30 30 31 32 33 35 38 42 46 50 53 53 48 45 46 47 48 50 51 50 48 48 50 50 50 52 52 50 50 50 50 51 51 49 49 50 50 49 48 47 45 43 41 40
33 33 33 33 33 32 32 31 31 32 32 32 32 31 31 30 31 31 31 31 32 32 33 34 35 37 40 44 47 51 55 55 51 49 49 50 52 53 54 52 49 49 51 53 55 54 52 52 52 51 51 51 51 51 53 53 51 49 48 48 47 44 42
36 35 35 34 33 33 32 32 32 33 33 33 33 33 32 32 32 32 32 33 33 33 33 34 35 37 39 42 46 50 53 56 57 55 53 53 53 54 56 58 56 53 53 54 56 57 54 53 53 53 53 52 52 52 53 53 52 50 48 48 49 48 46
40 39 37 36 35 34 33 33 33 34 34 34 34 34 34 34 34 34 34 34 34 35 35 35 36 37 38 40 44 48 51 54 56 58 58 57 56 54 54 57 60 60 59 58 59 60 58 55 52 51 52 52 53 54 54 54 53 52 50 49 50 50 48
43 42 41 40 38 37 35 34 34 35 35 36 36 35 35 35 35 36 36 36 36 36 37 37 37 37 38 40 42 45 49 52 54 57 59 60 60 58 56 55 57 61 64 64 64 63 61 59 55 51 50 51 53 54 55 56 56 56 54 52 52 52 51
44 44 44 43 42 41 39 38 37 36 36 37 37 37 37 36 36 37 38 38 39 39 39 39 39 39 40 41 42 44 47 50 52 54 57 59 61 62 60 57 56 57 61 64 65 65 64 62 59 55 53 53 54 54 55 57 58 59 58 55 55 55 53
45 45 45 45 44 44 43 42 40 39 39 39 39 39 39 39 39 39 39 40 41 42 42 42 42 42 42 43 44 45 47 48 50 53 54 57 59 62 63 62 59 57 58 59 61 64 65 64 61 59 58 58 57 55 55 56 58 60 60 60 59 58 57
49 48 47 46 46 45 45 45 44 43 42 41 41 41 41 41 42 42 42 42 43 44 44 45 45 45 45 45 46 46 48 49 50 52 53 55 57 59 61 62 61 60 60 60 60 61 64 66 64 62 62 63 63 62 59 58 59 61 62 63 63 62 60
52 51 50 49 48 47 47 47 47 46 46 45 45 44 44 44 44 45 45 46 46 46 47 47 47 48 48 48 49 49 49 50 51 52 53 55 56 58 59 60 60 60 61 63 64 62 62 65 67 66 65 66 67 68 67 64 63 63 64 65 66 65 64
54 53 53 52 52 51 50 50 49 49 49 49 49 48 48 47 47 47 48 49 49 49 49 49 49 50 50 51 51 51 51 52 52 53 54 56 56 57 59 59 60 60 60 62 66 68 67 66 67 69 69 69 69 70 71 71 70 69 67 67 68 68 67
56 56 56 56 55 55 54 53 52 52 52 52 52 52 52 51 51 51 51 51 51 51 51 51 52 52 52 53 53 53 53 54 54 55 55 56 58 58 59 60 61 61 61 61 64 69 71 71 69 69 70 71 71 72 72 73 75 75 72 71 71 71 70
59 59 59 59 59 58 57 56 55 55 55 55 55 55 55 55 55 54 54 54 54 54 54 54 54 54 55 55 55 55 55 56 56 56 57 58 59 59 60 61 62 62 62 62 63 66 70 74 74 73 71 72 72 73 73 73 74 76 76 75 75 75 74
62 62 61 61 62 62 61 60 58 58 58 58 58 58 58 58 57 57 57 57 57 56 56 56 57 57 57 57 57 57 57 57 57 58 58 59 59 60 61 62 63 64 64 64 64 65 67 71 75 76 75 74 73 73 73 73 74 75 76 76 76 76 77
67 65 64 64 65 64 64 62 61 61 60 60 60 61 61 61 61 60 60 60 60 59 59 59 59 59 59 59 59 59 59 59 59 59 59 60 61 61 62 63 64 65 66 67 67 67 67 68 70 74 76 76 75 74 73 73 73 74 75 76 76 76 76
70 68 68 69 68 67 66 65 64 63 63 63 62 62 63 64 64 63 63 62 62 62 62 62 62 62 62 62 62 62 61 61 61 61 61 61 62 62 63 64 65 65 66 67 68 69 69 70 70 71 73 74 75 75 75 74 73 73 74 76 76 76 75
72 71 72 72 72 72 70 68 67 66 66 66 65 65 65 66 67 67 66 65 65 65 65 65 66 66 65 65 65 65 64 64 64 64 63 63 63 64 64 65 66 66 67 68 69 69 70 71 71 71 72 73 73 74 75 75 75 74 74 75 76 77 76
72 73 73 74 74 74 73 72 72 70 69 68 68 68 68 69 70 70 69 68 68 68 69 69 69 69 69 69 69 68 68 68 68 67 67 66 66 66 66 67 67 68 69 69 70 70 71 71 71 72 72 73 73 73 74 75 76 76 76 76 77 77 77
71 72 73 73 74 74 75 75 75 74 73 72 71 71 71 72 72 72 72 71 71 72 72 72 72 71 72 72 72 72 72 71 71 70 70 70 69 69 69 69 70 70 70 71 71 71 71 71 72 73 73 73 73 73 74 75 75 76 77 78 78 79 78
70 71 71 72 72 73 74 75 76 76 75 74 74 74 75 75 75 76 75 75 75 76 76 75 74 74 75 75 75 75 75 75 74 74 73 73 73 73 73 72 72 73 73 73 73 73 72 72 73 74 74 74 74 74 74 75 75 76 77 78 79 80 80
71 71 71 71 71 71 72 73 74 75 75 74 74 76 78 80 80 80 80 79 79 79 79 78 77 77 78 78 78 78 78 78 77 77 77 77 76 76 76 76 76 76 76 76 76 75 75 75 74 75 75 74 74 74 75 75 75 76 76 77 79 80 81
73 72 72 71 71 71 71 70 71 72 71 72 73 75 79 83 84 83 84 83 83 83 82 81 80 81 81 81 80 80 80 80 80 80 79 79 80 80 79 79 79 79 80 79 79 78 78 77 77 76 76 76 75 75 76 76 77 77 77 77 78 80 81
74 74 74 73 73 72 71 70 70 68 67 69 73 76 80 83 84 84 86 87 87 87 86 85 84 84 84 83 83 83 83 82 82 82 82 82 82 82 82 82 82 83 83 83 82 82 81 81 80 79 79 79 78 78 79 79 79 79 79 79 80 81 81
76 75 75 75 74 73 72 71 71 69 68 70 73 76 79 82 84 85 86 87 89 91 91 89 88 87 87 86 85 85 85 85 84 84 84 84 84 85 85 85 85 85 85 85 84 84 84 84 83 83 82 82 82 82 83 83 83 83 82 82 82 83 84
77 76 76 76 75 75 75 74 73 70 69 70 73 76 79 82 83 84 85 88 90 91 91 91 90 90 90 90 89 88 88 87 86 86 86 86 87 87 87 87 87 87 87 86 86 86 86 86 86 86 85 85 85 86 86 86 86 86 86 86 86 87 87
77 77 77 77 76 76 76 76 75 73 71 71 72 75 78 81 82 82 84 87 90 91 91 91 90 91 93 94 93 93 92 90 90 89 89 89 89 89 89 89 89 88 88 88 88 88 88 87 87 87 87 87 88 88 89 89 89 89 89 89 89 89 90
78 78 78 78 78 77 77 76 76 75 75 74 74 75 77 80 81 82 84 85 86 88 90 91 91 91 93 95 96 96 95 94 93 93 92 92 91 91 91 91 90 90 90 90 90 90 89 89 89 89 89 89 90 90 90 91 91 91 91 92 92 92 92
78 78 78 78 77 77 77 77 76 76 76 75 75 76 78 80 82 84 84 83 83 83 86 88 90 91 93 95 97 98 97 96 95 95 95 95 95 94 94 94 93 92 92 92 92 92 91 90 90 90 90 91 91 92 92 93 93 94 94 94 94 94 94
78 79 79 78 77 76 76 77 77 77 76 75 75 76 78 81 84 84 82 81 81 81 83 85 87 89 91 93 96 98 98 97 96 97 97 97 97 97 97 97 96 96 95 95 95 95 94 94 93 92 92 92 93 93 94 95 96 97 97 97 96 96 95
78 78 78 78 77 76 75 75 76 77 76 75 75 76 78 81 85 84 80 79 80 80 82 84 85 86 87 88 90 93 95 95 95 96 97 97 98 98 98 98 98 98 98 98 98 98 98 97 96 96 95 95 96 97 98 100 101 101 101 100 100 100 99
77 77 77 77 76 75 74 74 75 76 76 76 76 77 78 81 83 83 80 78 78 78 79 81 83 84 84 85 86 88 90 91 91 91 93 95 96 96 97 98 98 99 99 99 99 99 99 99 99 99 99 98 99 100 102 103 104 104 104 105 105 105 105
75 75 75 75 74 74 73 74 74 74 75 76 78 78 79 79 81 81 79 77 75 75 76 77 79 80 81 82 83 84 86 88 88 87 87 89 90 91 93 94 96 97 98 98 98 98 99 99 100 100 100 100 101 102 103 104 105 106 107 108 108 108 109
72 72 72 72 72 72 73 73 73 73 74 75 77 78 79 79 79 79 77 75 73 72 73 74 76 77 78 79 81 82 83 84 85 84 83 83 83 83 84 86 87 88 89 90 91 92 93 94 95 95 96 96 97 99 100 102 104 105 107 108 109 110 110
69 69 69 68 68 69 70 71 71 72 73 74 75 77 78 78 78 77 74 71 70 70 70 71 73 74 75 76 78 79 79 80 81 81 80 79 78 76 76 76 75 75 76 77 79 81 83 85 87 88 89 89 91 93 95 97 98 100 102 103 105 106 107
65 65 65 64 63 65 67 68 69 69 70 72 73 75 77 77 76 74 71 69 68 68 68 69 70 72 73 74 76 77 78 78 79 78 78 78 76 73 70 69 68 67 67 68 69 71 73 75 77 78 79 80 82 85 89 91 94 96 97 98 98 99 100
61 60 60 59 60 62 64 64 65 67 68 70 71 73 74 74 73 71 70 69 67 67 67 68 69 70 72 73 74 75 76 77 77 77 77 76 75 72 68 65 63 62 62 62 62 64 66 68 68 68 69 71 75 79 83 86 89 90 91 91 92 93 93

ECMWFFLT1_250_spd_006.txt.gz
Wind_Speed
26 26 26 26 26 26 26 26 27 27 28 29 30 30 31 32 33 33 33 34 33 33 33 33 34 38 45 46 46 45 45 45 44 43 44 44 43 43 43 46 48 49 47 45 43 43 44 44 44 45 45 45 46 46 46 46 45 45 46 46 45 44 44
28 28 28 27 27 27 27 27 27 28 29 30 31 31 31 33 34 34 34 34 34 34 34 34 34 37 42 46 46 47 48 49 47 45 43 43 43 42 41 42 45 47 48 48 46 45 46 46 46 46 46 46 46 46 47 48 48 46 46 47 46 45 43
30 30 29 29 29 29 29 29 29 28 29 30 31 32 32 33 34 34 34 34 34 34 34 34 35 37 41 44 46 47 50 52 51 48 46 44 44 44 43 43 43 44 45 47 48 48 47 48 48 48 48 48 48 48 49 50 49 48 47 47 46 45 45
32 32 31 31 31 30 30 30 30 30 30 30 31 32 33 33 34 35 34 34 34 34 34 35 36 37 40 43 45 47 50 54 55 53 51 48 47 47 47 46 45 44 44 44 46 48 49 49 50 50 50 50 50 50 51 51 50 49 48 48 47 46 46
35 35 35 34 33 32 31 31 31 31 31 31 31 32 34 35 35 36 35 35 35 35 35 36 37 38 39 41 44 47 50 53 56 57 56 54 51 50 51 50 48 46 46 45 44 45 47 49 50 51 51 51 51 52 52 52 52 51 48 48 48 46 47
39 38 38 38 37 36 35 34 33 32 33 32 32 33 34 36 36 37 37 36 36 36 36 36 37 38 39 41 43 46 49 52 55 57 59 58 55 52 52 53 53 51 49 49 47 45 46 48 50 51 51 52 52 52 53 52 52 52 50 49 49 48 49
42 41 40 41 41 40 39 38 37 35 35 34 34 34 35 36 37 38 38 38 38 38 38 38 38 39 40 41 42 44 47 50 53 56 59 60 60 56 53 53 55 55 53 53 52 49 48 48 50 51 52 53 53 53 53 54 54 53 53 52 52 51 51
44 44 43 43 43 43 43 42 41 40 39 38 37 37 37 37 38 39 40 40 40 40 40 40 39 40 40 41 42 44 46 48 52 55 58 60 62 61 58 55 55 56 56 55 55 54 53 52 52 53 53 54 54 53 53 54 55 56 55 55 55 54 53
47 46 46 46 46 46 46 45 45 44 43 42 42 41 40 40 40 40 41 41 41 41 42 42 42 41 41 42 42 43 45 47 50 53 56 59 61 63 63 61 58 57 57 58 58 57 57 56 55 55 55 55 55 55 55 54 54 56 57 57 57 56 55
50 49 49 48 48 48 48 48 48 47 46 46 45 45 44 44 43 42 42 42 42 43 43 43 44 44 43 43 43 43 44 46 48 50 53 56 59 61 63 64 63 61 60 60 61 60 59 60 60 60 59 59 58 58 58 58 56 55 56 58 58 58 58
52 52 52 52 51 51 51 50 50 49 49 48 48 48 48 48 47 46 45 44 44 44 44 44 45 46 46 45 45 45 45 46 47 49 51 53 56 59 62 64 66 66 64 63 63 64 62 61 62 64 65 64 64 63 62 62 61 59 59 58 58 58 59
54 54 54 54 54 54 54 53 53 52 51 51 50 50 50 50 50 49 48 48 47 46 46 46 46 47 47 47 48 48 48 48 48 48 50 51 53 56 59 62 64 66 67 67 67 67 66 64 62 63 66 67 68 68 68 67 65 63 63 63 60 58 58
55 55 56 57 57 56 56 56 56 55 54 53 53 53 52 52 52 51 51 51 50 50 49 49 48 48 48 49 49 50 50 51 51 50 50 51 52 54 56 58 61 64 66 68 68 69 70 69 67 64 64 66 68 69 70 71 70 68 66 67 66 65 63
57 57 58 59 59 58 58 58 58 57 57 57 56 56 55 55 54 53 53 53 53 53 53 53 52 51 51 50 50 51 52 53 53 53 52 52 53 54 55 56 58 60 62 64 67 68 70 71 71 69 67 66 67 68 69 70 71 71 70 69 69 69 69
60 60 61 61 61 61 60 60 60 60 60 59 59 59 59 58 57 57 56 55 55 56 56 57 56 56 54 53 53 52 53 53 54 55 55 55 55 55 56 56 57 58 60 61 63 65 67 69 70 71 70 68 67 68 70 70 71 71 71 71 70 70 70
64 64 64 64 64 63 63 62 62 62 62 62 62 62 62 61 61 60 60 59 59 59 59 59 60 59 59 57 57 56 56 55 55 56 56 57 58 58 57 58 59 59 60 61 61 63 64 66 67 69 69 69 68 69 70 72 72 71 71 72 72 72 73
66 66 66 66 66 66 66 65 65 64 64 64 64 64 64 64 64 64 63 63 63 63 63 63 63 63 62 62 61 61 60 59 58 58 58 59 59 60 60 60 60 61 61 62 62 63 64 65 66 67 68 68 69 69 70 72 74 74 73 73 73 73 74
67 67 66 66 68 69 69 68 68 68 67 67 66 66 66 66 66 66 66 66 66 67 68 68 67 66 65 65 65 65 65 64 63 62 62 62 62 62 63 63 63 63 63 63 64 64 65 65 66 67 67 68 68 69 70 71 73 75 75 76 75 74 74
66 65 63 63 67 70 70 70 70 71 70 70 69 69 68 68 68 68 69 69 69 70 71 71 71 70 69 68 68 68 68 68 68 67 66 65 65 64 64 65 65 65 65 65 65 66 66 67 67 67 68 68 69 69 70 71 71 73 74 76 77 77 76
64 62 59 59 64 67 68 69 70 71 72 72 72 72 72 71 72 72 72 72 73 73 74 74 74 73 73 72 71 71 71 71 71 71 70 69 68 68 67 67 67 67 68 68 68 68 68 68 68 69 69 69 69 70 70 71 72 72 73 74 75 76 77
63 61 59 59 62 65 66 67 68 70 71 71 72 72 72 74 75 76 76 77 77 77 77 76 75 75 75 75 75 74 74 74 74 74 74 73 72 72 71 70 70 70 70 70 70 70 70 70 70 70 70 70 70 71 71 72 72 73 74 75 75 76 76
64 62 61 61 63 64 65 65 66 68 69 69 69 69 71 73 75 76 78 79 80 81 80 80 79 78 78 77 78 78 78 78 77 77 76 76 76 76 75 75 74 73 73 73 72 72 72 72 72 72 72 71 71 71 72 73 74 74 75 76 77 77 77
67 65 64 64 64 65 65 66 66 67 68 68 68 67 69 70 71 72 76 78 80 81 83 83 83 83 81 80 79 79 80 80 81 80 79 79 79 79 79 78 78 78 77 76 76 75 75 74 74 74 74 74 73 73 73 74 75 75 76 77 78 79 79
70 69 67 66 66 66 66 67 67 68 67 67 67 67 67 68 68 69 73 76 77 79 82 85 87 86 86 85 83 81 81 82 83 83 83 82 82 82 82 82 81 81 81 80 79 79 78 77 77 77 77 76 76 75 75 75 76 76 77 78 79 80 81
73 72 71 70 69 69 69 69 69 69 69 68 67 67 67 68 68 69 72 74 74 76 80 83 86 88 89 88 86 84 84 84 84 84 85 85 85 85 85 85 85 84 84 84 83 83 82 81 81 80 80 80 79 79 78 78 78 78 79 79 80 81 82
75 74 73 72 72 72 71 72 72 72 71 70 69 68 67 68 69 70 72 72 72 76 80 82 85 87 88 88 87 87 88 87 87 86 86 87 87 88 88 88 88 87 86 86 86 86 86 85 85 84 84 84 83 83 82 81 81 81 81 81 82 83 84
76 75 75 74 74 73 73 74 74 74 74 73 72 70 69 69 70 72 72 72 72 76 80 82 83 84 84 84 86 89 90 90 90 90 90 90 90 90 90 90 90 90 89 89 89 89 89 88 88 88 87 87 87 87 87 86 85 85 85 85 85 85 86
78 77 76 75 75 75 75 75 76 75 75 75 74 73 72 72 73 73 74 74 73 75 78 80 82 81 80 80 82 86 88 90 91 92 92 93 93 93 92 92 92 92 91 91 91 91 91 91 90 90 90 90 91 90 90 90 90 90 90 89 89 88 89
80 80 79 77 77 76 76 77 77 77 77 76 76 75 75 75 75 75 75 75 75 76 78 80 80 79 78 79 81 83 85 86 88 91 93 95 96 96 95 95 95 94 93 93 93 93 93 93 92 92 92 93 93 93 93 93 94 94 94 93 92 91 92
82 82 81 80 79 78 78 78 78 78 78 78 77 77 77 77 77 77 77 77 77 78 79 80 79 78 78 79 80 81 82 83 85 87 90 93 95 96 97 98 98 97 96 96 96 96 95 95 94 93 93 94 95 95 95 96 97 97 96 95 95 95 95
83 82 82 81 80 79 79 79 78 79 79 79 79 79 79 79 79 79 78 79 79 79 80 80 79 78 79 79 79 79 80 81 82 83 86 88 91 93 96 98 99 99 99 99 99 99 99 98 96 95 95 95 95 96 97 98 98 98 97 97 97 97 98
82 81 81 80 80 79 79 79 79 79 79 80 80 80 81 80 80 80 80 80 80 79 79 80 80 79 79 79 78 78 78 79 79 80 81 83 85 88 91 94 97 98 99 100 100 101 101 100 99 98 98 98 98 98 99 99 99 98 98 98 98 99 99
80 79 79 79 78 78 79 79 79 79 80 80 80 81 81 81 81 82 82 81 79 79 79 81 81 80 78 77 77 76 77 76 76 76 78 79 82 84 87 90 92 94 96 98 99 100 101 101 101 101 101 101 101 102 102 102 101 100 100 100 100 101 101
76 75 75 75 75 75 75 76 77 77 79 80 80 81 81 81 82 82 82 80 80 80 80 81 80 79 77 76 75 74 74 73 72 73 74 76 78 80 83 85 87 89 91 93 95 97 97 98 99 100 101 101 102 103 104 104 103 103 103 103 103 104 104
72 71 71 71 71 71 71 72 73 74 76 77 79 80 80 80 80 80 80 80 80 80 80 80 80 79 77 75 73 72 71 71 70 70 71 73 75 77 78 80 82 84 85 87 89 91 92 93 95 96 98 99 100 102 103 104 104 103 104 104 104 105 106
69 69 69 68 67 67 68 69 70 71 72 74 76 77 78 78 78 79 79 79 79 79 79 79 79 78 77 75 72 70 69 68 68 68 69 70 72 74 75 76 78 79 80 81 83 85 86 86 87 89 91 92 94 96 98 99 100 101 101 102 103 104 105
66 66 65 65 64 64 65 66 66 67 68 70 72 73 74 75 76 77 78 78 78 78 78 77 77 77 76 74 71 69 67 66 66 66 66 68 70 71 72 73 74 75 75 76 77 78 79 79 79 79 80 82 84 87 89 91 93 94 96 97 98 100 102

ECMWFFLT1_250_spd_009.txt.gz
Wind_Speed
26 26 26 25 26 26 27 27 27 28 29 30 30 31 33 33 34 34 34 33 34 35 36 38 40 41 42 44 46 49 48 44 42 46 51 50 45 44 44 41 39 42 45 46 46 45 45 47 48 47 45 45 45 44 43 43 41 40 40 43 43 42 43
26 26 26 26 26 27 27 27 28 29 30 30 31 31 32 33 34 34 34 34 34 35 36 37 39 40 41 43 44 47 49 47 45 45 48 50 49 48 47 44 42 43 45 47 49 48 46 46 47 47 45 44 44 44 44 44 42 41 42 46 47 44 42
26 26 26 26 27 28 28 29 29 30 30 31 31 31 32 33 34 34 35 35 34 35 36 37 38 39 40 41 43 45 48 50 49 46 47 49 50 50 49 46 46 46 46 47 49 49 48 47 46 46 45 44 44 44 44 44 44 43 45 47 48 47 44
27 28 28 27 28 28 29 30 31 32 32 32 32 33 33 33 34 35 35 35 35 35 36 37 38 38 39 40 41 43 46 51 52 49 48 49 50 51 51 49 49 49 49 50 50 50 50 49 48 47 46 45 44 44 44 45 44 45 47 48 49 49 48
30 30 30 30 30 30 30 31 32 33 34 34 34 34 34 34 34 34 35 36 35 36 36 37 37 38 38 38 40 42 44 50 54 51 49 51 51 52 52 52 52 52 51 52 52 52 52 52 50 49 48 47 46 45 45 45 45 47 48 49 49 50 50
34 33 33 33 34 34 33 33 34 35 35 35 35 35 35 34 34 34 35 35 36 36 37 37 37 37 38 38 39 41 43 48 54 53 50 52 54 54 53 54 53 53 52 52 51 51 52 53 53 52 51 51 50 48 47 47 47 48 49 50 51 51 51
39 38 37 37 38 38 37 37 36 36 37 37 37 36 36 36 35 35 34 35 36 37 38 39 39 38 38 38 39 40 43 46 52 54 52 52 56 57 57 56 55 54 53 52 51 51 51 51 51 51 52 54 53 51 50 50 50 50 51 52 52 52 52
43 42 42 41 41 41 41 41 41 40 39 39 40 39 38 37 37 36 35 35 36 37 38 39 40 40 39 39 39 40 43 46 50 53 53 52 55 59 60 59 58 57 56 55 53 52 51 50 49 48 49 51 54 54 54 53 53 52 53 54 54 54 53
46 46 45 45 45 45 45 44 44 43 42 42 41 42 41 41 40 39 38 37 36 36 37 39 40 42 42 41 41 41 43 46 49 51 52 52 54 57 61 62 61 60 59 58 56 55 54 52 51 50 50 50 51 53 54 54 54 55 55 56 56 56 55
48 48 48 48 48 48 48 47 47 46 46 45 44 44 44 44 43 43 41 40 39 38 37 38 39 41 43 43 43 43 44 46 49 51 52 52 53 55 59 62 63 63 62 61 59 59 58 57 55 53 53 53 52 52 53 53 54 54 55 57 58 58 58
50 49 49 49 49 50 50 50 49 49 48 48 48 48 47 47 47 46 46 45 44 42 41 40 39 40 42 44 45 45 45 46 48 51 53 53 53 54 57 60 62 63 65 64 62 61 61 62 61 59 57 57 56 55 55 55 55 55 55 57 58 59 59
52 51 51 51 51 50 50 51 52 52 52 52 52 51 51 50 50 49 49 49 48 47 46 44 43 42 42 43 45 46 46 47 48 50 53 55 55 55 56 58 60 62 64 65 65 64 62 63 64 64 62 61 60 60 59 59 59 58 58 59 59 59 59
52 51 51 52 52 51 50 51 52 53 54 55 55 55 55 54 53 52 52 51 51 50 50 49 48 46 45 44 44 46 47 47 48 50 52 55 57 57 58 58 59 61 62 64 65 65 65 64 64 64 65 65 65 63 62 63 63 63 63 63 63 62 61
53 52 51 51 52 52 51 52 53 53 55 57 57 58 58 58 57 56 55 54 53 53 52 52 52 51 50 48 47 47 47 48 49 50 52 54 56 58 59 60 61 61 62 63 64 65 66 66 65 65 65 67 68 68 65 64 65 66 67 67 66 65 64
57 56 54 54 52 50 50 52 54 54 55 57 59 59 59 60 60 59 58 57 56 56 55 55 55 54 54 53 52 51 50 49 49 50 52 53 55 57 58 60 61 63 63 63 64 65 66 67 67 67 66 66 69 71 71 68 66 66 68 69 71 70 69
60 59 58 57 55 51 49 52 55 56 56 56 59 61 61 60 61 61 61 61 60 60 59 59 58 57 57 57 56 56 54 53 52 51 52 53 55 57 58 59 60 62 63 65 65 66 67 68 69 69 69 69 69 70 72 73 71 69 68 68 70 73 73
62 61 59 58 58 55 52 54 57 58 58 58 59 60 61 62 63 62 62 63 63 63 63 63 62 61 60 59 59 59 58 57 57 55 55 55 56 57 58 60 60 61 62 64 65 66 67 69 70 71 71 72 72 72 72 73 74 74 72 70 69 70 73
60 60 58 55 56 57 57 61 64 62 60 59 59 59 60 63 64 64 64 65 65 66 66 65 65 64 63 63 62 62 61 61 61 60 59 58 58 59 59 60 61 62 63 63 64 65 66 68 69 70 71 72 73 74 74 75 75 76 76 76 74 72 71
56 57 53 47 47 52 57 62 66 65 63 61 61 62 62 63 63 64 67 68 68 69 68 67 67 66 66 66 66 65 65 64 64 64 64 63 63 62 62 62 62 63 64 65 65 65 66 67 67 68 69 71 72 73 74 76 76 77 77 78 79 78 77
56 57 55 49 49 54 59 62 64 66 66 63 63 66 66 64 64 66 70 70 69 70 70 70 69 69 69 69 69 69 68 68 67 67 67 67 67 67 66 66 66 65 65 66 66 67 67 67 67 68 68 69 70 71 72 74 75 76 77 78 79 80 80
58 59 59 59 62 65 66 67 67 67 65 62 62 64 66 65 64 66 70 70 69 71 72 72 73 72 72 72 72 72 71 71 71 70 70 70 70 70 70 69 69 69 69 68 68 68 68 68 69 69 69 70 70 71 71 72 73 74 75 75 76 77 78
61 61 61 63 65 67 69 69 69 67 64 62 63 64 66 65 63 65 69 69 68 70 72 74 74 75 76 76 75 75 75 74 73 73 73 73 72 73 73 73 73 73 73 72 71 70 70 70 70 71 71 71 72 72 73 73 74 74 74 74 75 75 76
64 64 64 64 65 66 67 68 68 67 64 63 65 65 65 64 62 64 68 68 67 70 72 74 74 76 78 78 78 79 78 77 76 75 75 75 76 76 77 76 76 76 76 76 75 74 74 73 73 73 73 73 74 74 75 75 76 76 76 75 76 76 76
68 67 66 67 67 67 67 67 67 67 65 64 65 65 64 63 62 63 65 67 68 70 71 73 75 77 78 79 80 81 81 79 78 78 78 78 78 79 79 79 79 79 79 79 78 78 78 77 77 76 76 76 76 76 76 77 77 77 78 77 78 78 78
71 70 69 70 70 70 70 69 69 69 67 65 65 66 66 66 67 66 66 68 69 70 70 73 75 76 77 79 81 82 82 81 81 81 81 81 82 82 81 81 82 82 82 82 82 81 81 81 81 81 80 80 79 79 78 78 78 79 79 79 79 80 81
73 72 72 72 72 72 72 72 72 72 70 68 67 68 68 68 69 70 69 70 70 69 70 73 75 76 77 78 79 81 81 80 82 83 82 83 84 85 84 84 84 84 84 85 85 84 84 84 84 84 84 84 83 83 82 81 81 81 81 81 81 82 83
75 74 75 75 75 75 75 75 75 75 74 73 71 71 71 71 71 71 71 71 70 68 71 74 75 76 77 77 77 79 80 80 81 82 82 83 85 86 87 86 86 86 87 87 87 87 87 87 87 87 87 87 87 87 86 85 85 85 85 85 84 85 85
76 76 77 77 76 77 77 77 77 77 77 76 75 74 74 73 73 73 72 72 69 68 71 75 76 76 76 76 76 78 79 80 81 81 80 81 84 85 86 87 88 89 90 90 89 89 90 90 90 90 90 90 90 90 90 90 90 89 89 89 88 88 88
78 78 78 78 78 78 78 78 78 78 79 78 77 77 76 76 76 75 73 72 69 68 71 75 75 75 75 75 77 78 79 80 81 81 80 81 82 83 84 85 87 89 91 91 91 91 92 93 93 93 93 92 92 93 93 93 94 94 93 93 92 91 91
79 80 80 80 80 79 79 79 79 79 79 79 78 78 78 78 77 75 74 72 69 69 73 75 73 73 74 75 77 79 80 81 81 81 81 81 82 82 82 84 86 88 89 91 91 92 93 95 95 95 95 95 95 95 96 97 97 97 97 96 95 94 94
81 81 81 81 81 81 81 80 80 80 80 80 80 80 79 79 79 76 74 74 73 73 75 74 72 73 74 75 77 79 80 81 82 82 82 81 81 81 82 83 84 86 87 88 89 90 92 94 96 96 97 97 97 98 99 100 100 100 99 99 98 98 98
82 82 82 82 82 82 82 81 81 81 81 81 81 81 80 81 80 77 76 77 76 76 75 74 73 74 75 76 77 79 80 81 81 81 81 81 81 82 82 83 84 84 85 86 87 89 90 92 94 95 97 98 99 100 101 102 102 102 101 101 101 101 101
83 83 83 83 82 82 82 82 82 82 82 82 82 82 82 82 81 79 78 79 78 76 75 75 76 76 77 78 79 79 80 81 81 80 81 81 81 81 82 83 83 82 83 85 86 87 89 90 91 93 95 97 99 101 103 104 104 104 104 103 104 104 104
82 82 82 82 82 82 82 82 82 82 82 82 82 82 82 81 80 80 80 79 78 76 76 77 78 79 80 80 80 80 80 81 80 80 80 80 81 81 81 82 81 81 82 83 84 86 87 88 90 91 92 94 96 98 100 103 104 105 106 106 106 106 106
81 81 81 81 81 81 81 81 81 80 80 80 81 81 81 80 79 79 79 79 78 77 77 78 80 81 80 80 80 80 80 80 80 80 80 80 80 79 80 80 80 79 80 82 82 83 85 87 88 89 90 92 94 95 97 99 101 103 105 106 107 108 108
79 79 79 79 78 78 79 79 78 77 77 77 78 78 78 77 76 75 76 77 77 77 77 77 78 79 79 79 79 79 79 79 79 80 79 79 78 78 78 78 78 77 78 79 79 80 81 83 85 86 88 90 91 93 94 95 96 98 100 102 104 106 107
74 74 75 75 75 75 74 74 74 74 74 74 74 74 74 73 71 71 73 75 75 74 74 74 75 76 77 77 77 77 77 77 77 77 77 76 75 75 75 75 75 74 74 75 76 78 79 80 81 83 84 86 88 89 90 91 92 93 94 96 98 100 102

ECMWFFLT1_250_spd_012.txt.gz
Wind_Speed
28 28 28 28 29 29 30 30 30 30 29 29 28 27 28 29 30 31 31 31 31 31 31 32 33 36 38 41 45 47 45 43 40 38 39 42 41 39 39 35 33 38 43 43 43 43 42 41 42 45 46 46 46 43 42 41 41 43 45 44 42 43 44
28 27 28 28 28 29 30 30 30 29 29 29 28 27 27 28 30 31 31 32 32 33 33 34 34 35 37 39 43 46 47 46 45 43 42 44 43 41 42 39 36 39 44 44 44 44 43 43 43 45 48 50 50 47 46 45 43 42 44 45 45 45 44
29 28 28 28 28 29 29 30 30 29 29 28 28 28 28 29 30 30 31 32 33 34 35 36 37 37 36 38 41 44 47 47 48 48 47 47 46 43 42 41 38 40 44 44 45 45 44 44 45 47 48 50 52 51 49 48 45 43 43 44 44 44 44
32 31 29 29 29 29 29 30 29 29 29 29 29 29 30 30 30 31 31 32 33 34 35 36 37 37 36 37 39 42 44 46 48 50 50 49 49 45 44 43 41 42 45 46 45 45 45 45 46 48 49 50 52 52 52 50 48 47 45 44 44 44 43
36 34 33 32 30 30 30 30 31 31 31 31 31 31 30 31 31 31 31 31 32 34 36 36 36 36 36 37 38 39 42 44 46 48 49 49 48 46 45 46 45 44 46 48 47 46 45 45 47 49 49 51 51 52 52 52 50 48 47 46 46 45 43
40 38 37 36 34 32 31 31 32 32 33 33 33 33 32 32 32 32 31 32 32 33 35 37 37 37 38 38 38 39 40 42 44 46 48 49 48 47 46 48 49 48 48 49 50 49 46 45 47 49 50 51 51 51 51 51 50 49 49 48 46 45 44
43 42 41 40 38 37 35 34 34 34 34 34 34 34 34 34 34 33 33 33 33 33 34 35 37 38 39 39 39 40 40 41 43 45 47 49 49 48 48 49 51 53 53 51 51 51 50 48 48 50 52 52 52 52 52 51 50 50 50 50 48 46 46
45 45 44 44 43 42 40 38 37 36 36 36 36 35 35 35 36 36 36 35 35 35 34 35 36 37 39 40 41 41 41 42 43 44 46 48 49 49 50 50 51 54 57 56 53 52 52 51 51 52 53 54 54 54 53 53 52 51 51 51 50 49 47
46 46 46 46 46 45 44 43 42 40 39 39 38 38 38 38 38 38 38 38 37 37 36 36 36 36 38 40 42 42 42 43 43 44 45 47 49 49 50 52 52 52 56 58 58 56 54 53 53 54 54 55 56 56 55 53 53 52 52 52 52 51 50
47 47 47 47 47 47 46 46 45 45 44 43 42 42 41 41 40 40 40 40 40 39 39 38 38 37 37 38 41 43 44 44 44 44 45 46 49 50 50 52 53 53 54 57 59 60 59 56 55 56 57 58 58 58 57 56 55 55 55 55 54 54 53
47 48 48 49 49 49 48 48 48 47 47 47 47 46 45 44 44 43 43 42 42 42 42 42 41 40 39 39 39 41 43 45 46 46 46 47 48 50 51 52 54 55 55 56 58 61 63 61 59 58 59 60 60 59 59 58 58 58 58 58 57 57 57
48 49 50 50 51 50 50 50 49 49 49 49 49 49 48 48 47 46 46 45 45 45 45 45 45 44 43 42 41 41 42 44 46 48 48 48 48 50 51 52 54 56 57 57 57 60 63 65 64 61 60 60 60 60 60 59 58 57 57 56 56 57 57
51 51 51 51 52 52 52 51 51 51 51 51 51 51 50 50 50 50 49 49 48 48 48 47 48 48 48 47 46 45 44 43 44 46 48 49 50 50 51 53 54 56 57 58 58 59 61 65 68 65 62 62 62 62 62 60 59 58 56 55 54 54 55
53 53 53 53 52 52 52 52 52 54 53 53 53 53 52 52 52 52 52 52 52 52 51 51 50 50 50 50 50 49 48 47 46 46 47 49 51 51 52 53 55 56 58 59 59 60 60 63 67 68 66 64 64 65 65 64 61 60 58 58 57 57 56
57 56 56 55 54 54 54 53 52 53 53 52 53 53 53 54 54 54 53 53 54 54 54 54 54 53 52 52 52 52 52 51 50 50 49 49 50 52 52 53 54 56 58 59 60 60 61 62 65 68 69 68 65 65 66 68 67 64 62 61 61 61 60
59 60 60 57 55 54 54 53 52 53 53 53 54 54 54 55 54 54 55 55 55 55 56 56 56 56 56 55 55 55 55 55 54 54 53 53 52 52 53 54 55 56 58 60 61 61 62 63 64 66 69 70 70 68 66 67 69 70 68 66 65 65 65
48 54 59 60 58 57 56 55 55 56 56 57 58 57 56 56 54 54 55 55 56 56 57 57 58 59 59 59 59 58 58 58 58 57 57 56 56 55 55 55 55 56 57 59 62 63 63 64 64 66 67 69 71 72 71 69 68 69 72 72 71 69 68
43 48 56 57 57 57 58 58 58 58 58 59 60 59 57 56 56 55 57 57 57 57 58 59 59 60 60 61 62 61 61 61 61 60 60 59 59 59 58 57 57 57 58 58 60 63 65 66 66 66 67 68 70 71 73 73 72 70 70 72 74 75 75
52 56 59 57 52 51 54 57 58 59 58 57 58 58 56 54 55 55 57 59 59 59 59 60 60 61 61 62 63 64 64 64 64 63 63 63 62 61 61 61 61 60 60 60 60 61 63 66 68 68 69 69 70 71 72 74 75 74 72 71 72 74 77
57 61 63 60 54 50 50 53 56 58 57 56 57 57 51 47 49 51 53 57 60 61 60 60 60 62 63 64 65 65 65 66 66 66 66 66 65 65 64 64 64 64 64 63 63 63 63 64 66 68 70 71 72 72 72 73 74 75 76 75 74 74 74
57 59 61 61 58 54 51 51 53 55 55 55 57 57 49 41 43 49 54 56 58 60 61 61 61 63 65 66 66 66 66 66 66 68 68 68 68 68 68 67 67 67 67 67 67 66 66 65 65 67 69 71 73 73 74 74 74 75 76 77 77 78 77
57 59 60 60 59 57 53 52 52 53 54 53 54 57 55 49 48 54 58 58 57 56 58 60 61 65 69 69 68 68 67 66 67 68 69 69 70 70 71 71 71 71 71 70 70 69 69 69 68 69 69 70 72 73 74 75 75 76 77 77 78 79 80
59 60 60 60 60 60 57 54 54 54 55 55 54 57 61 60 57 59 59 57 56 56 56 58 62 67 72 74 72 70 69 69 70 70 70 71 72 72 73 73 73 74 74 74 73 73 72 72 72 72 73 73 73 73 74 75 75 76 77 78 79 80 81
61 61 62 62 62 62 61 59 58 57 57 58 57 58 62 62 61 61 61 59 60 62 61 61 64 67 71 75 75 72 71 71 72 72 73 73 74 75 75 75 75 76 77 77 76 76 75 75 75 75 76 76 76 76 75 75 76 76 76 77 78 79 80
63 63 63 64 64 65 64 63 62 60 60 61 62 63 65 66 66 66 66 66 67 66 64 62 64 66 68 72 74 74 73 72 71 71 72 74 76 76 76 77 77 78 79 79 79 79 79 79 79 79 79 79 79 79 79 79 78 78 78 78 78 79 80
66 66 66 67 67 67 68 67 66 65 64 64 65 66 68 69 71 71 71 72 72 70 66 66 68 69 70 71 72 73 74 73 71 71 72 73 75 76 76 77 78 79 80 81 82 82 81 82 82 83 83 83 83 82 82 82 82 82 82 82 81 82 82
68 69 69 70 70 70 70 71 70 69 69 69 68 69 70 71 72 73 72 72 73 72 70 70 72 73 73 72 72 73 74 74 72 72 74 74 74 74 75 76 77 78 79 81 83 84 84 84 85 86 86 86 86 86 86 85 85 86 86 86 85 85 85
70 71 71 72 72 73 73 73 73 73 73 73 73 73 73 73 74 74 74 72 71 70 71 73 75 76 75 74 74 75 76 75 74 75 78 78 77 77 77 77 78 79 80 81 83 84 84 86 88 89 88 88 88 89 89 89 89 89 89 89 89 89 89
72 72 72 73 73 74 74 74 75 75 75 76 76 76 76 76 76 76 76 74 70 69 71 74 76 77 77 76 76 76 77 77 77 78 79 80 80 80 80 80 80 80 81 82 83 84 84 86 88 89 90 90 91 91 92 92 92 92 93 93 92 92 92
73 72 73 73 73 74 75 75 76 76 76 77 77 78 78 78 77 77 77 75 71 70 73 76 77 79 79 78 78 79 80 80 80 80 80 80 80 81 81 82 82 83 83 83 84 84 85 86 87 88 89 90 91 93 94 95 95 95 95 96 96 96 96
74 74 74 74 74 74 75 76 76 76 77 77 77 78 78 78 78 77 76 74 72 72 75 77 78 79 79 78 79 80 82 83 83 83 82 82 81 82 82 82 83 83 84 85 85 86 86 87 87 87 87 88 90 92 93 95 96 97 97 98 98 99 99
76 76 76 76 76 76 76 76 77 77 77 76 77 77 78 78 77 76 74 73 72 74 77 78 78 79 79 79 79 80 82 83 83 82 82 82 83 83 83 83 83 83 84 85 87 87 88 88 88 88 87 87 88 90 91 93 94 96 97 99 100 101 101
76 77 77 77 77 78 78 78 78 78 78 77 77 77 78 78 77 74 73 73 74 75 76 77 77 78 79 79 80 80 82 82 82 81 81 82 83 83 84 84 84 84 85 86 87 88 88 88 88 88 88 88 88 89 90 91 93 94 96 97 99 101 102
77 77 78 78 79 79 79 80 80 79 79 78 78 78 79 77 75 74 73 74 75 75 76 76 76 77 78 79 80 80 80 81 81 81 81 82 82 83 84 84 84 84 86 86 87 88 88 88 88 89 89 89 89 89 90 91 92 93 94 96 97 99 100
77 78 79 80 80 80 80 81 81 80 80 79 78 79 78 76 74 73 73 73 74 75 75 75 76 77 77 78 79 79 79 80 81 82 81 81 82 82 84 83 83 83 85 85 86 87 87 87 88 88 88 89 89 89 90 90 91 92 93 94 95 96 97
76 78 79 80 80 80 81 81 81 80 79 78 78 78 77 76 74 73 72 72 73 74 74 75 75 75 76 76 77 78 78 79 81 81 81 81 81 81 82 82 81 81 82 82 83 83 84 85 86 86 87 88 88 89 89 89 90 91 92 93 93 94 95
73 75 77 78 78 78 79 79 79 78 77 75 75 75 75 74 73 71 71 71 72 73 73 73 73 73 74 75 76 76 77 77 78 79 79 79 79 79 79 79 78 77 78 78 79 80 81 82 83 84 85 86 86 87 87 88 88 89 89 90 91 92 93

ECMWFFLT1_250_spd_015.txt.gz
Wind_Speed
50 48 45 43 42 41 39 37 35 34 33 32 33 32 31 31 31 31 31 31 31 32 32 32 32 32 33 34 35 35 36 37 39 39 39 40 40 40 40 38 38 40 42 40 37 33 34 38 38 38 39 40 40 40 40 41 44 47 50 51 50 49 50
52 49 46 43 42 41 40 38 36 34 33 33 32 32 31 30 30 29 29 28 28 29 30 31 30 30 31 31 32 33 33 34 37 38 39 40 41 41 41 40 39 40 42 42 37 34 34 37 40 40 40 41 41 42 42 42 43 46 49 50 49 48 49
51 49 46 44 43 41 40 39 37 35 34 34 33 32 31 30 29 29 28 28 28 28 29 30 30 31 31 31 31 31 32 32 34 35 38 40 42 42 41 39 39 39 42 42 37 34 36 38 40 42 43 41 41 41 42 42 43 46 48 49 48 47 46
49 47 46 44 43 42 42 40 39 37 35 34 34 34 33 32 31 30 30 29 29 30 30 30 31 31 31 33 33 33 34 34 34 34 36 40 42 44 42 40 40 40 41 42 38 35 38 41 42 44 46 45 42 41 42 43 44 46 47 47 47 45 44
47 45 45 45 44 43 43 42 41 39 37 36 35 34 34 34 33 33 32 32 33 33 33 32 32 32 32 33 34 36 37 37 37 35 35 38 41 44 45 43 42 42 42 43 42 37 37 42 45 46 48 49 47 45 44 45 46 47 49 49 47 46 44
45 44 44 44 44 44 44 44 43 42 40 38 36 35 35 35 35 35 35 35 35 35 35 34 34 34 34 34 35 36 37 38 38 37 36 36 38 42 45 46 46 46 45 45 45 41 38 42 46 47 49 49 50 49 47 46 47 48 50 51 50 48 48
45 44 44 44 45 45 45 45 45 45 43 41 39 38 37 37 37 37 37 37 37 37 37 36 35 34 35 35 36 37 38 38 38 38 37 36 37 38 42 45 48 49 48 47 48 45 42 42 45 47 49 50 50 51 50 48 48 49 49 51 52 52 52
44 44 44 45 45 46 46 47 46 47 47 45 43 41 40 39 39 39 39 39 39 39 39 38 37 36 36 35 36 37 38 39 39 39 38 38 38 38 39 42 45 47 48 49 50 48 45 45 46 47 48 50 51 51 52 52 50 49 49 51 54 56 55
46 45 46 47 47 47 47 48 48 48 48 48 47 46 44 43 42 42 42 42 42 42 41 41 40 39 39 38 37 37 38 40 40 41 41 41 40 40 40 40 42 44 46 48 49 49 47 46 48 49 48 49 51 51 52 53 53 51 50 50 53 55 55
49 49 49 50 50 50 49 48 48 48 49 49 49 49 48 48 46 45 45 45 44 44 44 43 43 42 41 41 40 38 38 39 40 42 42 43 43 43 42 41 42 43 44 45 47 48 47 47 49 51 51 50 50 51 52 52 53 53 52 52 52 53 53
50 49 50 51 51 51 50 50 49 49 49 50 51 51 51 50 50 49 48 48 47 47 46 45 45 44 43 43 42 41 40 40 41 41 42 43 44 44 44 44 43 43 44 44 45 46 47 48 50 52 54 54 52 52 52 53 53 54 54 53 53 53 53
49 48 49 49 50 50 51 52 53 52 51 51 51 52 52 52 52 52 51 51 50 49 48 48 47 47 46 46 45 44 43 43 42 43 43 43 44 45 46 46 45 45 45 45 46 46 46 48 50 51 54 56 57 55 54 54 55 55 55 55 55 55 54
48 49 50 49 49 49 50 52 54 55 54 54 53 53 53 53 53 53 53 53 52 52 51 51 50 50 49 49 48 48 47 46 45 45 44 43 43 44 45 47 47 47 47 47 47 48 48 48 50 51 52 55 58 60 59 56 56 57 58 58 58 58 58
52 52 54 55 52 49 48 50 53 55 56 57 56 56 55 55 54 54 54 54 53 53 53 53 53 53 53 52 51 51 50 49 48 48 47 46 45 45 45 46 47 48 49 49 49 50 50 51 51 52 53 54 56 60 62 62 60 59 59 60 60 59 60
55 52 54 60 61 56 52 52 53 55 57 57 57 57 57 57 56 55 55 55 55 54 54 55 55 55 55 55 55 54 53 52 51 51 50 50 49 48 47 47 47 48 49 50 51 52 52 53 53 53 54 55 56 57 60 64 64 62 61 62 63 63 62
56 52 51 56 60 59 56 54 54 55 57 58 58 57 57 58 57 57 56 56 56 56 56 57 57 57 57 57 57 57 56 55 54 54 53 53 52 52 52 51 50 49 49 50 51 53 54 55 55 55 56 56 57 58 59 61 64 66 64 63 64 65 65
55 51 47 48 52 54 55 56 55 55 56 58 58 57 58 59 58 58 58 57 58 58 58 58 58 58 58 58 58 58 58 58 57 57 56 56 56 55 55 55 54 53 52 52 52 52 54 55 56 58 58 58 58 59 60 60 62 65 67 67 65 65 66
56 52 49 50 53 56 57 58 60 61 61 59 58 58 57 58 59 58 58 58 59 60 60 59 59 59 59 59 59 59 59 60 60 59 59 58 58 58 57 57 57 57 56 56 56 55 55 55 56 58 59 60 60 61 61 62 62 63 66 68 69 68 67
57 59 60 63 62 58 56 56 57 61 63 60 58 57 54 53 55 57 59 60 61 62 62 62 62 62 62 62 61 61 60 60 61 61 61 61 61 60 60 60 60 60 60 59 59 59 58 58 57 58 59 60 61 62 62 63 63 64 65 67 70 71 71
54 58 63 66 64 60 56 53 51 55 60 61 58 56 53 52 53 55 58 60 63 65 65 65 66 67 66 65 64 63 62 61 61 62 62 63 63 62 62 62 63 63 63 62 62 62 62 62 61 61 61 61 62 63 63 64 64 65 66 67 68 70 72
54 57 60 61 61 61 61 60 58 60 64 65 62 59 57 57 57 56 56 58 62 65 66 66 67 68 69 68 67 66 65 63 63 64 64 65 65 65 64 64 64 65 65 65 65 65 64 64 65 65 65 65 64 64 64 65 66 66 67 68 69 70 71
54 57 60 61 62 64 66 67 68 68 68 67 65 63 61 61 61 60 59 59 61 63 64 64 65 66 67 68 67 66 66 66 66 66 67 68 67 66 66 65 65 66 66 67 67 67 67 67 67 68 68 68 68 68 67 67 67 67 68 68 70 71 71
55 57 59 62 65 67 69 69 69 69 67 66 65 64 62 62 61 60 60 60 61 61 62 62 62 63 64 66 66 64 64 66 67 67 67 68 68 68 67 66 66 66 67 67 68 69 70 70 70 71 71 71 71 71 71 71 70 70 70 70 71 71 72
56 56 58 60 62 64 66 67 67 67 66 65 65 64 62 62 62 60 59 59 59 60 61 61 62 62 63 65 65 63 62 63 64 64 63 64 65 67 67 67 67 67 67 68 68 69 70 71 72 73 73 74 74 74 74 74 74 74 74 73 73 73 74
56 57 58 59 61 62 63 64 65 65 65 65 65 64 64 63 63 62 60 59 59 60 61 62 63 64 65 65 65 64 64 64 64 62 61 61 63 65 67 67 66 66 67 67 68 69 70 71 73 74 75 76 76 77 77 77 77 77 77 77 77 78 77
57 58 60 61 62 63 63 64 65 65 65 66 66 65 65 64 64 63 62 61 60 61 62 63 65 66 67 67 66 66 67 67 67 65 64 64 66 68 69 68 67 67 68 68 68 69 71 72 74 75 76 77 78 79 79 79 80 80 80 80 80 81 82
58 59 61 63 64 64 65 65 66 67 67 67 67 67 67 66 66 65 64 63 63 62 63 65 67 67 67 67 67 67 68 69 68 67 68 70 72 74 74 73 73 73 72 71 71 71 72 73 74 75 76 78 79 80 81 81 82 82 82 82 83 84 85
60 62 63 64 65 65 66 67 68 69 69 69 70 70 69 69 68 67 65 64 65 65 66 67 69 69 70 70 70 71 73 73 71 71 74 76 77 78 78 78 79 78 77 76 75 75 75 75 75 75 76 76 78 80 82 83 84 84 84 84 85 86 87
63 64 65 65 66 67 67 68 69 70 70 71 71 71 71 71 71 69 67 66 66 68 70 71 72 72 73 73 74 75 76 76 76 77 79 81 80 79 79 79 80 81 81 81 80 79 79 78 77 78 78 78 79 79 81 83 85 86 86 87 87 88 88
66 67 67 68 68 69 69 70 71 71 71 72 72 72 72 72 72 71 69 68 68 70 73 74 75 75 75 76 77 78 79 79 79 80 81 82 82 82 81 81 81 81 82 83 83 83 83 82 81 80 80 81 82 82 82 83 84 85 87 88 89 90 91
69 69 70 70 71 71 71 72 72 72 72 72 73 73 73 73 72 71 70 70 71 73 75 76 76 76 76 77 78 80 81 81 81 82 82 83 83 83 83 83 83 84 84 84 84 85 87 87 86 84 84 83 83 84 84 85 85 86 87 88 89 91 92
71 72 72 73 73 74 74 74 74 73 73 73 73 73 73 72 71 71 71 72 72 74 76 77 77 77 77 78 79 80 81 82 82 83 83 84 85 85 85 85 85 86 86 87 87 88 89 89 89 89 88 87 86 86 86 86 86 87 88 89 90 92 93
73 74 74 75 76 76 76 75 75 74 74 74 73 73 72 70 70 70 71 73 73 74 76 77 77 78 78 78 80 81 81 82 82 83 83 84 85 85 85 85 86 87 88 89 90 91 91 91 91 92 92 92 91 91 90 89 89 89 89 89 90 91 93
75 75 75 76 77 78 77 77 76 76 75 74 74 73 71 69 69 70 71 72 73 75 76 76 77 77 78 79 80 81 81 81 82 82 83 83 84 84 84 84 85 87 88 89 90 91 91 92 92 93 93 94 94 94 94 94 93 93 92 92 92 92 92
76 75 75 76 77 78 77 77 77 76 76 75 74 73 70 68 69 70 70 71 73 74 75 75 76 77 77 78 79 80 81 81 81 81 82 82 82 82 82 83 83 85 86 87 88 88 89 91 91 92 93 93 94 95 95 95 95 95 95 95 95 95 94
76 76 75 75 75 76 76 76 76 75 75 75 73 71 69 68 69 69 70 71 72 73 73 73 74 75 76 77 77 78 79 80 80 80 81 81 81 81 80 81 81 82 83 84 84 85 86 86 87 88 89 91 92 93 94 94 94 95 95 95 95 95 95
76 75 75 74 73 73 74 73 73 73 73 73 72 70 68 67 67 67 69 71 71 72 72 72 72 73 74 75 76 77 78 78 78 78 78 79 79 79 79 78 79 80 81 81 81 81 81 82 82 83 85 86 88 89 90 91 91 92 92 92 93 93 94

ECMWFFLT1_250_spd_021.txt.gz
Wind_Speed
54 54 53 52 51 49 48 46 45 44 42 42 42 42 42 41 39 37 36 36 37 37 37 37 35 32 30 28 27 27 28 29 29 30 31 32 33 33 34 35 36 37 38 38 38 37 36 37 37 37 39 40 42 44 44 43 43 42 39 38 38 39 42
52 51 50 49 49 48 47 46 45 43 40 39 39 40 39 38 36 34 33 34 35 36 36 36 35 34 31 29 27 27 27 28 28 28 28 29 29 29 30 30 31 32 33 34 35 35 36 37 37 37 38 39 40 42 44 44 44 43 41 38 38 39 40
52 50 48 47 47 47 47 47 45 43 39 37 36 35 34 34 33 32 32 33 34 35 35 35 35 34 32 30 28 27 27 28 28 28 28 29 29 29 29 30 30 29 30 31 32 34 36 37 37 37 38 37 38 40 42 44 43 43 41 39 38 39 39
53 53 51 49 48 47 46 46 44 43 40 38 37 34 32 32 33 32 32 33 35 36 36 35 35 35 33 31 29 28 27 28 28 28 28 28 28 29 29 29 29 29 28 28 29 31 34 37 37 37 38 37 36 37 41 44 44 43 42 40 39 38 38
54 55 54 53 49 47 45 45 44 43 42 41 41 39 37 36 35 35 34 34 35 37 38 37 36 36 35 33 31 29 28 28 28 29 28 28 28 28 28 29 29 30 29 28 27 28 30 34 36 38 38 37 36 35 38 43 45 44 43 41 39 37 35
53 55 55 53 51 47 45 45 45 44 43 43 43 44 43 41 38 37 37 36 37 38 40 40 38 37 36 36 34 32 30 29 29 29 29 29 28 28 28 28 29 30 30 30 29 28 29 31 34 37 38 38 37 36 37 40 43 45 44 42 40 38 34
50 52 51 50 49 48 46 46 47 46 45 44 44 45 45 44 41 39 39 39 40 40 41 41 39 37 36 37 37 36 34 32 30 30 31 31 31 30 29 29 29 29 30 31 31 31 30 30 32 36 39 40 39 38 37 39 41 43 45 44 42 39 37
50 51 51 48 47 47 48 47 48 48 47 45 45 46 46 45 42 41 40 41 43 44 43 43 42 39 37 36 37 38 38 36 34 33 33 33 33 33 32 31 30 30 30 30 31 32 32 31 31 33 37 40 41 41 40 40 41 42 44 45 44 42 40
50 53 54 52 49 48 48 49 49 49 49 47 47 48 48 46 43 42 42 44 45 46 46 46 45 43 40 38 38 39 40 40 39 37 36 35 35 35 35 34 33 32 32 31 31 31 32 33 33 33 35 38 41 43 43 42 42 43 43 45 46 46 43
48 52 54 54 52 50 48 49 50 50 51 51 51 51 50 49 46 46 47 48 48 47 47 47 46 45 43 42 40 40 41 42 42 41 40 38 37 37 37 36 36 36 35 34 33 33 32 33 34 34 35 36 38 42 44 45 44 44 45 45 46 47 47
50 51 53 53 53 52 49 48 49 51 52 53 54 54 53 53 52 52 52 51 49 47 46 46 45 45 44 43 43 42 43 43 43 44 44 43 41 40 39 38 38 38 38 38 37 36 35 34 34 34 35 36 37 39 42 45 46 46 46 47 46 47 47
54 54 54 54 54 54 53 51 51 52 53 54 55 55 54 55 54 54 54 53 51 49 48 46 45 45 45 44 43 43 43 43 43 44 45 45 45 44 43 42 41 41 41 41 40 40 39 37 36 35 36 36 37 38 40 43 45 46 47 48 48 47 47
57 57 57 55 55 55 55 55 55 55 55 55 55 55 55 56 56 56 55 53 52 51 50 49 47 46 45 45 44 43 43 43 43 44 45 46 47 47 47 46 45 44 44 43 43 42 42 41 40 39 38 37 38 39 40 41 43 45 47 49 50 50 49
59 58 57 56 56 56 57 58 58 57 56 56 56 57 57 58 59 59 57 56 55 54 53 52 50 49 48 47 47 46 45 45 45 45 45 47 48 49 49 49 49 48 47 46 45 45 45 44 43 42 41 41 40 40 40 41 42 44 46 47 50 51 51
59 58 57 56 55 56 57 59 59 59 58 58 58 59 60 61 62 62 61 60 59 58 57 56 55 54 53 53 52 51 50 50 49 49 48 49 49 49 50 50 50 50 50 50 49 48 48 47 47 46 45 44 44 43 43 42 43 44 45 47 48 50 52
61 60 59 58 56 56 58 60 61 61 60 59 59 60 61 62 63 64 64 64 63 61 60 59 58 58 58 58 57 56 56 55 55 54 53 52 51 51 51 51 51 51 51 51 51 51 51 50 50 49 49 48 48 47 47 46 46 45 46 47 48 49 50
61 61 61 61 61 60 61 62 63 63 63 63 63 63 63 64 65 66 66 65 63 62 61 61 61 61 60 60 60 59 59 59 58 57 55 54 53 53 52 52 51 51 52 52 52 52 53 53 52 52 52 52 51 51 51 50 50 49 48 48 49 50 51
59 59 60 61 62 63 63 63 63 64 65 66 67 66 65 65 66 66 65 64 62 61 61 61 61 61 61 61 61 60 60 59 58 56 53 52 52 53 54 53 53 52 52 52 52 52 53 53 54 54 54 55 55 55 54 54 53 53 52 51 51 51 52
55 57 58 58 59 60 62 63 63 63 64 65 67 68 68 67 66 65 63 62 61 60 59 60 59 59 59 60 60 59 58 56 55 53 52 52 53 54 54 55 55 54 54 54 54 54 54 54 54 55 55 56 57 57 57 57 57 57 56 56 55 54 54
53 54 54 54 53 55 58 60 61 62 63 64 65 65 66 65 63 61 59 57 58 59 58 58 57 57 57 57 58 57 56 56 55 55 54 54 55 55 54 54 55 55 56 57 57 57 56 56 56 56 56 57 58 58 59 60 60 60 59 59 59 58 58
53 52 52 52 51 52 55 56 57 59 61 62 61 58 57 57 56 56 55 54 54 54 56 58 55 53 53 54 55 57 57 58 58 57 55 54 54 54 52 51 52 53 55 57 59 60 60 60 60 59 59 59 59 60 60 60 61 62 62 62 63 63 62
54 53 53 54 54 56 58 56 55 56 55 55 55 52 50 50 50 51 52 53 50 46 49 57 57 53 52 53 55 57 59 60 60 60 58 55 54 55 54 53 53 54 55 57 58 59 60 61 62 62 62 62 62 62 61 61 61 62 64 65 65 66 66
56 55 55 56 56 57 58 55 54 53 51 50 53 54 54 53 52 52 53 55 53 50 52 60 63 59 56 55 56 57 59 60 61 62 61 60 58 59 60 60 60 59 58 59 60 61 61 61 63 64 65 65 65 65 64 63 63 64 65 66 67 68 68
58 58 57 57 57 57 58 58 58 57 56 54 55 57 58 57 56 55 55 55 58 60 61 63 64 63 62 61 60 59 59 60 60 61 62 62 62 63 64 64 64 63 62 62 62 63 63 63 63 64 66 67 67 67 67 67 67 67 68 68 69 69 70
59 59 59 59 59 59 60 62 62 62 61 60 60 61 62 61 58 57 56 57 61 63 63 63 64 65 66 66 65 64 63 63 63 62 61 62 63 64 65 66 66 66 65 64 64 65 65 65 65 65 67 67 68 68 70 70 71 71 72 72 72 72 71
60 60 60 61 61 61 62 63 63 63 63 63 65 67 68 67 65 63 62 64 66 67 66 66 67 68 68 68 67 67 67 67 67 67 66 66 67 68 69 69 69 68 67 66 66 66 67 67 67 67 67 68 68 69 70 71 72 73 74 74 75 75 75
61 61 62 63 64 65 65 65 66 66 66 66 67 69 69 69 69 68 68 69 70 71 70 70 70 70 70 69 69 69 69 70 71 71 72 72 73 73 72 72 72 71 70 68 68 68 68 68 68 68 69 69 70 69 70 71 72 72 73 74 75 76 77
62 63 64 65 66 67 67 67 67 67 68 68 69 70 70 70 70 69 70 71 72 72 72 71 71 70 70 70 70 70 71 72 73 74 75 76 76 76 76 75 74 74 73 72 71 70 69 69 69 70 70 71 72 71 70 70 71 71 72 73 74 76 77
63 64 65 66 67 68 68 68 67 66 66 67 69 69 70 70 70 70 71 71 72 72 72 71 71 71 71 71 71 71 71 72 73 74 75 77 78 78 78 78 78 77 76 76 75 74 73 71 71 72 73 74 74 73 72 72 72 73 73 73 74 75 76
64 65 66 67 67 67 67 66 66 65 65 65 66 68 69 70 70 70 70 70 71 71 71 71 71 71 71 71 71 71 72 72 73 74 76 77 78 79 80 80 80 80 80 80 79 78 78 76 75 75 76 76 77 77 76 76 75 75 75 74 74 74 76
64 65 66 67 67 66 66 65 64 64 65 65 65 66 67 68 69 70 70 70 70 71 71 71 71 71 72 72 72 72 73 74 75 76 77 78 79 80 81 82 82 82 83 83 82 82 81 81 80 79 79 79 80 80 80 80 79 78 77 76 76 76 76
63 65 65 66 67 67 66 65 65 65 65 66 65 65 66 67 68 69 70 70 71 71 72 72 72 72 73 73 73 74 75 76 77 78 79 80 81 82 83 83 84 84 84 85 85 85 85 85 84 83 83 82 82 82 82 82 82 82 81 80 79 78 78
63 65 65 66 67 67 67 67 67 67 66 66 65 65 66 66 68 69 70 71 72 72 73 73 72 73 73 74 75 76 77 78 79 80 81 81 82 83 84 84 85 85 86 86 87 87 88 88 88 87 86 85 84 84 84 84 84 84 84 84 83 82 81
62 64 66 66 67 67 67 67 67 67 67 66 66 66 66 67 68 70 72 73 74 74 74 74 74 75 76 77 77 78 79 80 80 81 82 82 83 84 84 84 85 85 86 87 88 88 89 89 89 88 88 88 87 86 86 85 85 85 85 85 86 86 85
63 64 66 67 68 68 68 68 68 68 68 67 67 68 68 69 71 73 74 75 76 76 76 76 77 78 78 79 80 80 81 81 81 82 82 82 83 83 83 83 83 83 84 86 87 87 87 88 88 88 88 88 88 88 87 86 86 86 85 86 86 86 86
67 67 68 69 70 71 71 71 71 71 71 70 70 70 71 72 73 75 77 77 78 78 78 79 79 80 80 81 81 82 82 82 82 82 82 82 82 81 81 80 81 81 82 83 83 83 84 85 86 86 87 87 87 87 86 86 86 86 86 86 86 85 86
71 70 70 71 73 74 75 75 75 75 74 74 73 73 73 74 76 77 79 79 80 80 80 81 81 82 82 82 82 82 82 82 82 82 81 81 80 79 78 78 78 79 79 78 78 79 79 81 82 82 83 84 84 84 84 84 84 84 84 84 84 84 84

ECMWFFLT1_250_spd_024.txt.gz
Wind_Speed
40 41 42 43 44 44 45 46 47 48 48 48 48 48 48 46 45 43 42 40 37 33 29 28 26 23 21 20 21 22 23 23 23 22 24 27 30 32 33 32 33 34 35 36 37 37 37 37 38 39 40 40 39 37 35 32 31 32 33 35 36 36 35
42 42 42 43 44 45 46 47 48 48 48 49 49 48 47 44 42 41 40 38 34 30 26 24 24 22 21 20 21 22 23 24 25 25 26 26 27 28 28 28 29 29 29 29 29 29 29 29 30 31 31 32 32 31 30 28 29 30 32 33 35 36 35
45 44 44 44 45 45 47 48 48 48 48 48 48 47 45 43 42 41 39 36 33 29 26 24 24 24 24 23 23 23 23 25 26 27 27 27 27 27 27 27 26 26 26 25 25 26 26 26 25 25 27 28 30 30 29 28 28 30 32 33 33 35 35
46 47 46 47 47 47 48 48 49 49 48 48 47 46 45 43 42 41 40 37 34 31 29 28 28 28 28 27 26 25 25 26 27 28 29 28 28 27 27 27 27 26 25 24 23 24 24 24 24 23 23 25 28 29 29 29 29 31 32 34 34 34 34
44 45 45 45 46 46 45 45 46 47 47 47 46 46 45 44 43 42 41 39 36 35 34 33 31 31 31 31 30 28 27 27 28 29 30 30 29 28 28 28 27 27 25 24 23 22 22 23 24 24 23 23 25 28 30 30 31 32 33 34 35 34 33
41 42 43 43 44 44 41 41 42 43 43 44 45 45 45 44 44 43 42 40 38 37 36 35 33 32 32 32 31 31 30 30 30 31 31 31 31 30 29 28 28 28 28 26 25 23 23 23 24 25 25 24 25 27 29 31 32 33 34 35 36 36 35
37 39 40 41 45 44 40 39 39 40 41 41 41 42 43 44 44 43 43 41 40 38 37 35 34 34 33 32 32 32 33 33 33 33 33 33 33 32 31 30 29 29 29 29 28 26 25 24 24 25 26 27 27 27 28 31 33 34 35 36 37 37 37
37 38 38 39 45 45 41 40 41 41 42 41 41 42 42 44 44 44 44 43 42 40 38 36 35 35 34 34 34 35 35 35 35 35 35 35 34 33 32 32 31 30 30 30 30 29 27 26 25 25 26 27 28 28 28 30 33 35 36 37 38 38 39
41 41 40 40 44 46 45 44 44 44 45 44 44 44 43 44 44 45 45 44 44 42 40 39 38 38 39 39 38 38 38 37 37 37 37 37 36 35 34 34 33 33 32 31 31 31 30 29 27 27 27 28 29 29 29 30 32 35 37 38 39 39 40
44 44 43 43 45 46 47 48 49 49 49 48 47 45 44 43 44 45 46 46 45 44 44 43 43 43 44 44 44 43 41 40 39 38 38 37 37 37 36 36 35 35 35 34 33 33 33 32 31 29 29 29 29 30 31 31 32 34 37 39 40 41 40
45 46 46 46 47 48 49 50 52 52 52 51 50 48 46 45 44 44 44 45 46 46 46 47 47 48 48 47 47 46 44 42 41 40 39 39 39 39 38 37 37 37 37 37 37 36 36 35 34 33 32 31 31 31 31 32 33 34 36 38 40 42 42
47 49 50 50 51 52 54 54 55 55 54 54 54 52 50 49 48 46 45 45 46 46 47 48 49 49 49 49 48 47 45 44 43 42 42 42 41 40 39 38 38 38 38 38 39 39 39 38 37 36 36 35 34 33 33 33 33 34 36 37 39 42 44
52 53 54 53 53 54 56 57 58 57 56 56 56 55 54 52 51 50 49 48 48 48 49 49 49 49 49 49 49 48 48 46 45 45 44 44 43 42 41 39 39 38 38 38 39 40 41 41 41 41 40 39 38 37 36 35 35 35 36 38 39 41 43
55 56 56 55 53 52 52 54 56 57 57 57 57 57 57 55 53 52 52 52 52 52 51 51 51 51 51 51 51 51 51 50 49 48 47 46 45 44 43 42 41 40 40 40 40 41 42 43 44 44 43 43 42 41 40 39 38 38 37 38 39 41 42
58 58 58 58 57 56 54 55 56 57 58 57 57 57 58 58 56 55 54 54 54 54 53 53 52 53 53 53 53 53 53 53 52 51 50 48 47 47 47 47 47 47 46 46 45 45 45 46 46 46 46 46 45 44 44 43 42 41 41 40 40 40 42
60 61 61 61 62 62 62 61 61 60 60 59 58 58 59 59 59 58 57 55 55 55 55 54 54 55 55 55 55 56 55 54 54 54 52 51 50 51 52 52 52 52 51 50 49 49 48 48 48 48 48 47 47 47 47 46 45 45 44 43 43 42 42
59 61 62 62 63 64 64 64 63 63 62 62 62 61 60 59 59 59 59 58 57 57 57 58 58 58 59 59 60 59 58 57 56 56 54 52 52 52 53 54 54 54 53 51 50 49 48 48 48 49 50 49 49 49 49 49 48 48 47 47 47 46 46
58 59 60 61 62 62 63 63 62 62 62 62 62 62 61 60 60 59 60 60 60 59 59 60 60 61 61 62 61 61 60 60 59 58 56 54 53 52 53 53 53 53 52 51 49 47 46 45 46 48 50 51 51 50 51 50 50 50 50 50 50 49 49
57 57 57 58 59 60 60 60 60 59 59 60 60 60 60 60 59 59 60 60 60 60 60 61 61 62 62 62 62 62 62 62 61 58 56 55 54 53 52 51 51 51 50 49 47 46 46 46 47 48 49 51 52 52 52 52 52 52 52 53 53 53 52
56 55 55 56 56 57 57 56 56 56 56 57 57 57 57 58 58 58 58 58 58 58 58 59 61 61 62 62 61 61 60 58 57 55 54 53 53 53 52 51 51 50 49 49 48 48 49 49 49 50 50 51 52 53 53 53 53 53 54 54 55 55 55
55 54 54 55 55 55 54 54 54 54 54 54 54 55 55 55 56 57 57 56 56 56 57 59 60 60 61 60 58 56 55 55 54 52 51 50 50 51 50 49 49 49 49 49 50 50 50 50 50 50 50 51 52 52 52 53 54 55 55 56 56 57 57
55 55 55 55 55 55 54 53 53 53 52 51 53 54 55 55 57 58 57 56 55 54 55 55 58 60 58 56 55 55 56 57 55 52 48 46 46 47 46 46 48 50 50 51 52 52 52 51 51 51 52 53 52 51 50 51 53 55 56 57 58 59 59
57 57 57 57 57 56 55 54 54 53 52 51 52 54 55 57 60 60 59 57 53 51 52 53 57 61 59 55 56 57 57 57 56 51 47 45 46 47 46 46 49 51 52 52 52 52 52 53 52 53 54 55 55 55 54 54 55 56 57 58 59 60 61
58 58 58 58 58 57 56 56 56 55 55 54 53 54 54 57 60 60 59 57 54 52 55 56 58 62 61 59 58 58 57 58 58 55 51 49 50 50 49 50 52 53 54 53 53 53 53 53 53 53 55 57 59 60 60 59 58 59 59 60 61 62 62
59 59 58 58 58 58 57 58 57 57 56 54 53 55 57 57 59 59 58 58 56 56 59 59 59 62 63 60 57 56 56 59 61 62 60 58 57 56 55 55 55 55 54 54 54 54 54 54 54 55 56 57 59 60 61 60 61 62 63 62 63 63 64
60 59 59 60 59 59 59 59 59 58 57 54 54 58 60 59 59 59 59 60 60 60 61 62 63 65 64 62 59 60 62 64 65 66 66 65 64 63 61 60 59 58 57 55 55 55 55 55 56 57 58 59 60 61 61 62 64 65 65 64 64 65 66
62 62 61 61 61 61 61 61 60 60 59 57 58 61 62 61 60 59 60 62 63 64 64 65 66 67 66 66 66 67 68 69 69 69 69 69 68 67 66 65 64 63 63 61 60 59 58 58 58 58 59 60 61 62 62 63 65 66 66 65 65 66 67
65 65 64 63 63 63 63 62 61 61 60 60 61 64 64 64 63 62 62 64 66 68 69 70 71 71 71 71 71 70 70 71 72 71 71 71 70 69 69 68 67 67 66 66 65 65 64 63 63 62 62 62 62 63 63 64 66 67 67 67 67 67 68
67 67 67 66 65 64 63 62 61 61 62 62 63 65 67 68 68 68 68 69 70 72 73 73 74 74 75 74 73 72 72 72 72 73 73 72 72 71 70 69 69 69 68 68 68 68 68 68 67 67 67 67 67 67 67 68 68 69 69 69 70 70 71
68 68 67 67 65 64 64 63 63 63 64 65 66 67 69 70 71 72 73 73 74 74 75 76 76 76 76 75 74 73 72 71 72 72 73 73 73 72 71 71 71 70 70 70 70 70 70 71 71 71 71 71 72 72 73 73 73 73 73 73 72 73 74
66 66 65 65 64 64 64 65 65 66 67 68 69 70 71 71 72 73 74 75 75 75 76 76 76 76 75 74 73 72 71 71 71 72 72 73 73 72 72 72 72 72 72 72 72 72 72 73 73 74 75 76 76 77 77 77 77 77 77 77 76 75 75
61 61 61 61 61 62 63 64 65 66 68 69 70 70 71 72 73 74 75 75 76 76 76 76 76 75 74 72 72 72 71 71 71 71 72 72 72 73 72 72 72 73 73 73 74 74 74 75 76 78 79 80 80 81 81 81 81 81 81 80 79 78 77
60 59 59 59 58 59 61 62 63 65 66 67 69 70 71 72 73 74 74 74 75 75 74 74 73 72 71 71 71 71 72 72 71 71 71 72 72 72 72 73 73 73 74 74 75 76 77 78 80 81 82 83 83 83 84 84 84 84 84 83 81 80 79
62 62 61 59 59 59 60 60 62 63 63 64 65 67 68 70 71 72 72 72 72 72 72 71 71 70 70 70 70 70 71 71 71 71 71 71 72 73 73 74 74 75 75 76 77 78 80 81 83 84 84 85 85 85 86 86 86 86 85 84 83 82 81
67 66 65 64 62 62 61 61 62 62 62 62 64 65 67 68 69 70 70 70 70 70 70 70 69 69 69 69 69 69 69 69 69 70 70 71 72 74 75 76 77 77 78 79 80 81 83 84 84 85 85 85 86 86 87 87 86 86 85 84 83 82 82
72 71 71 69 68 66 65 64 64 64 63 63 64 66 68 68 69 69 70 70 69 69 69 69 69 69 69 69 69 69 69 69 69 70 71 72 73 75 77 78 79 79 80 81 82 83 84 85 84 85 85 86 86 87 86 86 85 83 82 81 80 80 79
76 75 75 75 73 71 69 68 68 68 68 67 66 68 70 70 70 70 70 70 70 70 70 70 70 70 70 70 70 71 71 71 71 72 73 74 75 76 78 79 80 81 82 83 83 84 84 84 85 85 86 86 86 86 85 83 82 80 79 77 77 76 76

ECMWFFLT1_250_spd_030.txt.gz
Wind_Speed
36 35 35 35 35 34 34 33 31 30 28 27 28 30 31 33 33 34 34 35 35 35 35 34 33 32 31 30 30 30 30 29 28 28 30 31 29 26 22 20 21 25 27 29 30 31 33 34 35 35 35 37 38 40 41 41 41 41 41 41 42 43 44
37 36 36 36 35 35 35 36 35 34 34 32 31 31 32 33 33 34 35 35 35 34 34 34 33 32 32 32 32 31 31 29 27 27 28 28 26 24 21 19 21 26 30 31 32 34 36 36 36 36 35 35 36 36 36 36 38 39 40 42 43 44 45
37 36 36 35 35 35 35 36 36 36 36 35 35 35 34 34 34 34 35 35 35 35 34 34 33 33 33 33 33 33 32 30 28 27 27 27 26 25 23 21 21 25 30 33 35 35 36 36 36 35 34 32 31 31 30 31 32 33 34 35 36 38 39
36 35 35 35 35 35 35 35 36 36 35 36 36 36 36 36 36 36 37 37 37 36 36 35 34 34 35 35 35 35 34 33 31 30 29 29 28 28 27 25 24 25 27 31 34 35 36 35 34 33 31 30 29 28 28 28 29 29 30 30 31 31 32
34 33 33 33 33 33 34 35 35 35 35 35 35 35 35 35 35 36 36 37 37 36 36 36 36 36 36 36 36 36 36 35 34 33 33 33 32 32 31 29 28 28 28 29 31 32 32 32 31 31 30 29 28 28 28 28 28 28 28 28 28 28 28
31 32 32 32 31 31 32 33 34 34 33 33 33 32 32 33 33 34 34 35 35 35 35 36 36 36 35 35 35 35 36 36 36 36 35 35 35 35 34 34 33 32 31 31 31 31 31 31 31 30 30 29 29 29 29 29 29 29 29 28 28 28 27
29 30 31 31 31 31 31 31 32 32 31 31 30 30 30 30 31 31 32 33 33 34 34 34 34 34 33 33 32 32 33 34 35 36 37 37 37 36 36 36 36 35 34 33 31 30 30 31 31 31 31 30 30 30 30 30 31 31 30 29 29 28 27
31 33 34 33 32 31 31 32 33 33 32 31 31 31 31 31 31 31 31 32 32 32 33 33 33 33 32 32 31 32 32 33 34 35 36 37 38 38 38 37 37 37 36 34 32 32 31 31 32 33 33 32 32 31 31 32 32 32 32 32 31 30 29
35 38 38 37 36 34 33 33 34 34 34 33 32 32 32 32 32 32 32 33 33 32 32 33 33 33 33 33 33 33 33 33 34 34 34 36 37 39 40 40 39 39 38 37 36 35 34 34 33 34 34 34 33 33 33 33 34 34 34 34 34 33 31
40 43 43 41 39 38 37 36 36 36 36 35 35 34 34 34 34 33 33 34 34 35 35 35 35 36 36 36 36 36 35 35 34 34 35 35 36 38 40 42 42 41 41 41 40 39 38 37 35 35 34 34 35 35 35 35 35 36 36 36 36 35 34
44 43 41 40 41 41 41 41 40 39 39 38 38 38 37 36 36 36 35 36 36 37 38 38 39 39 39 39 39 39 38 38 37 37 37 37 37 38 39 41 42 43 43 43 43 43 42 40 37 36 35 35 35 36 37 37 37 37 37 37 37 37 37
46 44 42 41 41 42 43 43 43 43 42 41 41 40 40 39 39 38 38 38 38 39 40 41 41 41 41 41 41 41 41 41 40 39 39 40 40 40 40 41 42 43 44 44 44 44 44 42 40 38 37 36 36 37 38 39 38 38 38 38 39 39 38
50 49 48 46 43 42 42 43 45 46 46 46 45 45 45 45 44 42 41 41 41 42 42 43 43 43 43 43 43 43 42 42 42 41 41 41 41 42 42 42 43 43 44 44 45 46 45 44 42 41 39 39 39 39 40 40 40 39 39 38 39 39 39
52 52 52 49 44 42 42 44 47 49 49 49 48 48 49 49 49 48 47 47 46 46 46 46 46 47 47 47 46 46 45 44 44 43 43 43 44 44 44 44 45 45 46 46 46 46 46 45 44 43 41 41 41 42 42 41 41 41 41 40 39 38 38
53 53 53 50 47 45 46 48 50 52 52 51 50 49 49 49 50 51 51 51 51 51 52 52 52 51 51 50 50 49 49 49 49 48 48 48 48 48 48 48 47 47 48 48 47 47 46 45 44 43 43 43 43 44 44 43 43 43 43 43 42 41 41
54 55 55 54 51 50 52 54 54 55 54 52 50 49 49 49 50 51 52 53 53 53 54 55 56 56 56 56 55 55 55 55 55 55 55 54 53 52 51 51 51 51 51 50 50 49 48 47 46 46 46 47 47 46 45 44 44 44 45 46 46 45 45
56 57 59 59 56 54 56 59 59 58 56 55 54 53 52 52 52 52 53 53 53 53 53 54 55 57 59 60 60 60 60 60 60 60 59 58 56 54 52 52 52 52 52 52 51 50 50 49 49 49 49 49 48 47 47 46 45 46 48 49 49 49 49
55 57 60 61 60 58 60 61 61 59 58 57 57 56 56 56 55 55 54 54 54 54 54 54 55 56 57 58 58 59 60 60 60 60 58 57 55 52 51 50 49 49 50 50 50 50 50 50 50 50 49 49 48 48 48 48 47 48 50 52 52 53 53
62 62 62 61 61 61 63 63 62 60 59 59 59 59 59 58 57 57 56 56 56 56 56 56 56 56 56 56 56 56 56 57 57 57 56 54 52 50 48 47 47 47 48 48 49 49 49 48 48 48 48 48 47 47 47 47 47 48 51 53 55 56 57
70 67 64 62 62 64 65 65 63 62 62 62 62 62 61 60 59 58 58 58 58 58 58 57 57 57 56 56 55 55 55 55 54 54 53 52 50 49 48 47 47 47 47 47 47 46 46 46 46 47 47 46 45 45 45 45 46 47 49 51 53 55 57
68 66 64 64 66 67 67 66 65 64 64 64 64 64 63 62 61 60 60 60 59 59 59 58 58 57 56 55 55 54 53 53 53 52 52 51 49 48 47 47 46 47 46 46 45 45 45 45 46 46 45 43 43 44 45 45 46 47 48 49 51 53 54
67 67 68 69 70 70 69 68 67 66 66 66 66 65 65 64 63 62 62 61 61 60 59 58 58 57 55 54 53 52 51 51 51 51 51 50 49 48 46 46 46 47 47 46 46 46 46 45 44 44 43 43 44 45 45 45 45 45 45 46 47 50 52
73 73 73 72 72 71 71 70 69 68 66 66 66 66 66 65 65 64 64 63 62 60 59 58 58 57 56 56 55 54 53 54 54 53 52 51 50 48 47 47 47 48 48 47 47 46 46 45 45 45 46 46 45 45 44 44 44 44 44 44 45 47 49
77 76 74 73 73 72 72 72 71 69 68 67 67 67 67 66 66 65 65 63 62 61 60 59 58 58 58 58 57 56 56 56 56 56 54 53 52 51 50 50 50 50 50 48 47 47 46 46 48 49 49 48 46 45 45 46 47 47 48 48 48 49 50
74 74 74 74 74 74 73 73 72 71 70 69 69 69 69 68 67 66 64 62 61 60 60 59 59 59 59 59 59 57 56 56 56 56 55 54 54 52 51 52 51 51 50 49 48 48 48 48 49 50 51 50 49 48 49 50 50 51 52 52 52 53 54
74 74 75 75 76 76 75 75 74 74 73 72 72 71 70 69 68 66 64 63 61 60 60 60 60 60 61 61 60 59 58 58 58 56 55 55 54 53 51 51 52 52 52 52 51 51 51 50 50 51 52 52 52 52 52 52 52 52 54 55 55 56 57
76 76 77 77 78 78 78 78 77 76 75 74 73 72 72 71 70 68 67 65 64 62 62 63 62 62 62 61 61 60 60 60 59 57 55 55 55 54 54 54 54 54 55 55 55 55 54 53 53 53 54 54 55 54 54 54 54 54 54 56 57 57 58
78 79 79 80 80 81 81 80 80 79 77 76 75 73 73 74 73 71 70 69 68 66 65 64 63 62 62 62 61 60 59 59 58 56 56 56 57 58 59 59 59 58 58 59 59 59 58 58 57 57 57 57 58 58 58 58 58 58 58 57 58 58 58
81 82 82 83 83 83 83 83 82 81 80 79 77 76 76 76 76 74 72 71 71 69 67 66 65 65 64 64 64 63 62 61 61 61 61 61 62 63 63 64 64 63 63 62 62 62 62 61 61 61 61 61 61 61 62 62 61 61 61 60 59 58 58
85 85 85 85 85 85 85 85 84 83 81 80 78 77 76 76 75 74 73 72 72 71 69 69 69 68 68 68 67 67 66 67 67 67 67 67 67 67 67 68 68 68 68 67 67 66 65 65 65 65 65 65 65 65 65 65 64 64 63 62 61 59 58
84 83 83 82 82 82 82 82 81 80 79 78 76 75 74 73 73 73 73 72 71 70 71 71 71 72 72 72 71 71 71 71 72 72 71 70 70 70 71 71 72 72 72 72 71 70 69 68 68 68 68 68 67 67 67 67 66 64 63 61 61 60 60
77 76 75 75 75 75 75 75 75 75 75 74 73 71 70 70 71 73 74 74 72 72 72 73 73 74 75 75 75 75 75 75 75 75 74 74 73 73 74 74 75 75 75 74 74 73 72 71 71 70 70 70 69 69 68 67 65 64 62 61 60 60 61
72 71 71 70 70 70 71 71 71 70 71 71 69 68 67 68 68 70 72 73 73 72 72 72 73 74 75 76 76 77 76 76 75 76 75 75 76 76 76 77 77 77 77 77 76 75 75 74 73 72 71 70 69 68 67 65 63 62 61 61 61 61 61
72 72 72 72 71 70 70 70 70 70 69 69 68 67 66 66 66 67 68 69 70 70 70 70 70 70 71 73 74 74 74 73 73 73 73 73 74 75 76 76 77 77 77 77 77 76 76 75 73 72 70 69 67 66 65 63 62 62 61 62 62 62 62
75 75 75 75 74 74 73 73 72 72 71 70 69 68 67 67 67 67 67 67 68 68 68 68 68 68 68 69 69 69 70 70 69 69 69 69 70 71 72 73 74 74 75 75 75 74 74 73 71 69 68 66 65 64 64 63 63 63 62 62 63 63 63
78 78 78 78 78 78 77 77 76 75 75 74 73 71 70 69 69 68 68 67 67 67 67 67 67 68 68 68 67 67 66 67 67 67 67 67 68 68 69 70 70 71 71 71 71 71 71 70 68 67 66 65 64 64 64 64 64 64 64 64 65 65 66
80 80 80 80 80 80 80 80 80 79 78 78 77 75 74 73 72 71 70 69 69 69 68 68 68 68 68 68 67 66 66 66 66 66 66 66 66 66 67 68 69 70 70 69 69 69 69 68 67 67 67 66 66 66 66 66 66 67 67 68 68 69 70

ECMWFFLT1_250_spd_033.txt.gz
Wind_Speed
48 46 43 41 38 35 32 30 29 27 26 25 24 23 23 24 27 29 31 34 37 38 38 38 37 40 42 44 45 44 42 42 43 44 43 41 39 37 37 35 36 37 36 34 33 35 38 38 38 38 38 38 38 38 38 38 37 36 37 38 40 41 43
45 44 41 38 36 33 31 30 29 28 27 27 26 25 25 25 27 29 31 34 36 38 39 39 38 40 42 45 47 48 48 47 48 48 45 43 40 38 36 35 35 35 33 30 31 34 37 40 41 41 42 43 42 40 39 39 40 40 41 42 43 45 46
39 38 38 37 35 33 31 30 29 29 29 28 28 28 27 27 27 29 30 33 35 38 40 41 41 42 44 45 47 49 50 49 49 48 45 43 40 37 36 34 34 34 32 31 32 34 36 41 43 43 44 43 41 39 38 39 40 41 42 43 43 44 45
34 34 36 36 35 32 30 29 28 28 29 29 29 28 28 28 28 28 29 31 33 36 38 40 42 43 45 46 47 47 47 47 46 44 43 41 39 38 37 35 35 35 33 33 34 34 36 40 43 42 41 40 38 38 39 39 40 41 41 40 40 39 39
31 31 31 31 32 30 28 27 26 26 27 27 27 27 27 28 29 29 30 31 31 33 34 36 38 40 41 42 43 44 44 44 44 43 42 41 40 41 40 38 38 38 36 35 35 35 37 39 41 41 40 39 39 40 40 41 41 41 40 40 39 38 37
27 27 27 27 27 26 24 23 23 24 25 24 24 24 24 25 26 27 28 30 31 31 33 34 35 37 38 39 40 40 41 42 42 41 41 41 42 43 42 42 41 41 40 39 38 38 39 40 40 40 40 41 41 42 42 41 41 40 40 39 38 37 37
25 26 28 29 28 25 23 22 22 23 24 23 22 22 23 23 24 25 26 27 28 29 31 32 33 34 35 36 37 38 39 39 39 39 40 41 42 42 42 42 42 42 42 43 42 41 41 41 41 42 42 42 42 42 41 40 40 40 40 39 38 38 37
28 28 30 31 31 30 29 28 27 26 26 25 24 23 23 23 24 24 25 25 25 26 28 29 30 30 31 31 32 34 35 36 36 37 38 39 39 39 40 40 41 42 43 45 45 44 44 43 43 44 44 43 42 41 39 39 39 39 39 40 39 39 38
37 37 38 37 35 33 33 33 32 31 32 31 29 28 26 26 26 26 26 26 26 27 28 29 29 29 30 30 30 31 32 33 34 35 36 37 37 38 38 39 39 41 42 44 45 46 46 45 45 45 45 45 44 43 42 41 40 40 40 40 40 40 39
47 45 44 43 41 39 38 37 36 36 36 36 35 33 32 31 30 29 29 29 29 30 30 31 31 31 32 32 32 32 33 34 35 36 37 38 38 39 39 39 39 39 39 40 42 44 45 45 45 45 45 46 47 47 45 44 44 43 42 42 42 42 41
50 48 47 47 46 45 43 41 40 40 40 39 38 37 37 37 34 32 31 31 31 31 32 32 32 33 34 34 34 35 36 36 37 38 39 40 41 41 41 41 40 40 40 40 40 41 41 43 44 45 46 47 49 49 49 48 47 46 46 45 44 43 42
52 50 49 48 48 47 45 43 43 43 42 41 40 40 41 40 38 35 34 34 34 34 34 34 34 34 35 36 36 37 38 39 40 41 42 42 43 43 43 43 43 42 42 42 42 42 42 43 44 45 47 48 49 50 49 48 47 48 48 47 46 44 43
51 49 47 47 47 46 46 46 46 45 44 44 44 44 44 43 41 39 38 38 38 38 38 38 38 38 38 38 39 39 40 40 41 42 43 44 44 44 44 44 44 44 45 45 45 45 45 45 45 46 47 48 49 49 47 47 47 49 49 48 47 46 45
52 50 49 48 48 47 48 48 48 47 46 46 47 46 45 43 41 40 40 40 40 41 42 42 42 42 42 42 42 42 42 42 43 44 44 45 45 45 45 45 45 46 46 46 47 46 46 46 46 47 48 49 49 49 49 48 49 50 50 49 49 48 48
55 54 52 51 49 49 49 48 47 47 47 47 47 47 46 45 43 43 43 43 43 44 45 46 46 46 46 46 46 46 46 46 46 46 47 47 47 48 48 48 48 48 48 49 49 49 49 49 49 50 51 51 51 51 51 52 51 51 50 50 49 49 48
55 55 54 53 51 50 50 50 49 49 49 48 48 48 48 48 48 49 48 48 48 48 49 49 49 49 49 49 48 48 49 49 50 50 50 50 50 51 51 52 52 52 53 53 54 54 54 54 54 54 54 54 54 54 54 54 53 52 52 51 50 50 49
57 57 57 56 55 54 54 54 53 53 52 52 51 51 51 50 49 51 53 53 52 51 51 51 52 52 52 52 51 51 51 52 51 51 52 52 52 52 53 53 54 54 55 55 56 56 56 56 56 55 55 55 56 56 56 55 54 54 54 53 53 52 52
63 62 62 61 59 58 58 57 57 56 55 54 54 54 52 50 50 53 56 56 55 55 54 54 54 54 55 55 54 54 54 54 53 53 53 53 52 52 52 52 53 54 54 54 54 55 55 55 54 54 54 55 56 56 56 55 55 55 54 54 54 53 53
68 68 67 65 63 62 61 61 60 59 58 57 56 55 54 55 58 60 59 58 58 58 57 56 56 57 58 58 57 57 56 55 55 55 54 53 52 52 51 51 51 51 52 52 52 52 52 52 52 52 52 52 53 54 54 54 54 54 54 53 53 53 53
70 71 70 68 67 66 65 65 65 64 63 61 60 60 61 64 65 63 60 59 59 59 59 59 60 60 60 60 59 58 58 57 57 56 55 54 52 51 50 50 50 49 50 50 50 50 51 51 51 51 50 51 51 52 52 52 53 53 53 52 52 52 53
72 72 71 70 68 68 68 68 68 69 68 67 66 67 68 67 65 62 61 61 61 61 62 62 62 63 63 62 61 60 59 58 57 56 55 54 52 50 49 48 48 48 48 48 49 49 49 49 50 49 49 49 50 50 50 51 51 52 52 52 51 51 52
76 74 73 71 68 67 67 67 68 68 69 70 70 69 68 66 64 63 63 63 62 62 63 63 64 65 64 63 63 62 60 59 57 56 55 53 51 49 47 46 47 47 47 48 48 49 49 49 50 49 49 49 49 49 49 50 51 52 52 52 51 50 51
79 77 76 75 72 70 70 71 71 71 72 72 71 70 69 67 67 66 65 65 64 64 64 64 65 66 65 64 64 62 60 59 58 56 54 51 49 47 45 45 46 47 49 49 50 51 51 51 51 51 51 50 50 49 49 50 51 52 52 51 50 50 50
77 77 78 77 76 76 78 78 77 75 74 72 71 71 70 69 69 68 67 67 66 65 64 63 64 64 64 63 63 62 61 60 58 56 53 49 47 46 44 42 42 44 46 47 48 50 51 51 51 53 53 53 52 51 51 51 52 52 52 51 51 52 52
74 75 76 77 78 79 81 80 79 77 75 73 71 71 71 71 69 68 68 68 67 67 65 63 63 63 62 62 62 61 60 58 56 54 52 49 49 47 44 42 41 41 41 42 44 46 48 48 49 52 54 54 53 52 52 52 52 52 52 52 53 53 54
74 73 74 74 76 77 78 78 79 78 77 75 71 68 69 69 69 68 68 68 68 67 64 62 62 62 61 62 62 61 60 58 57 56 54 53 52 49 46 46 48 46 45 45 46 47 47 48 50 52 52 52 52 52 52 53 53 53 53 54 54 54 54
74 74 74 74 74 74 75 75 75 75 75 73 71 69 70 70 69 69 70 69 69 68 65 63 64 65 65 65 65 64 65 63 61 59 58 54 49 43 43 47 50 50 49 48 50 52 53 52 53 54 54 55 57 57 57 58 58 58 57 55 55 55 55
74 74 74 74 75 75 75 75 75 75 75 74 74 75 74 74 74 74 73 72 71 70 68 68 71 72 72 72 72 71 71 69 65 62 59 56 52 49 49 51 50 50 49 50 53 56 58 58 58 60 63 65 65 64 63 63 62 61 59 58 57 57 57
74 74 75 76 76 76 76 76 76 77 77 77 77 78 78 79 79 78 78 78 77 76 74 75 77 78 78 78 77 75 74 71 67 64 61 61 61 61 62 61 59 59 59 60 61 63 65 66 68 69 71 70 69 68 68 66 64 63 62 62 61 60 60
75 76 76 77 78 78 79 79 79 79 80 80 80 80 81 81 81 82 81 82 82 81 80 81 82 81 81 80 78 76 73 70 68 65 63 63 63 64 65 66 66 67 67 68 69 69 71 72 72 72 72 71 71 71 71 70 68 67 66 65 64 64 64
77 78 79 80 80 80 81 81 82 82 83 83 83 83 84 84 84 84 83 83 83 82 79 79 80 80 78 77 75 74 71 69 67 65 64 65 65 66 67 69 70 70 70 71 72 72 73 73 73 74 74 74 74 74 75 74 73 72 71 69 69 68 68
79 80 82 83 83 83 84 84 84 85 85 86 86 86 86 85 83 83 81 80 79 77 73 72 73 73 72 71 70 69 67 66 66 67 67 67 68 69 69 70 72 73 73 74 75 75 75 76 76 77 77 77 77 77 77 77 75 75 74 73 73 72 71
78 79 80 81 82 82 83 83 83 83 83 83 83 82 80 79 78 77 75 74 72 70 68 67 67 68 68 68 67 67 66 65 67 69 69 68 70 71 71 72 72 73 73 74 74 75 75 75 75 75 75 75 75 75 75 75 74 73 73 73 72 70 68
75 76 77 78 78 78 78 78 78 78 79 79 79 76 74 75 75 72 71 70 69 67 67 68 68 69 70 70 69 69 67 65 66 68 67 66 67 68 70 71 71 71 71 71 71 70 70 70 69 69 70 69 69 69 69 68 68 68 67 67 66 64 63
75 76 76 77 76 76 77 77 77 77 77 78 78 76 74 76 76 73 71 72 71 70 70 72 72 72 72 72 71 70 69 67 67 67 67 66 65 65 67 68 68 67 67 68 67 67 66 65 65 65 65 65 64 64 62 62 63 63 63 63 62 61 61
77 77 78 78 78 78 79 79 79 79 79 80 81 80 78 79 79 77 75 76 75 74 74 74 74 74 74 74 73 72 71 70 69 68 67 66 65 65 67 67 66 66 66 66 65 65 64 64 64 64 64 64 63 62 61 61 62 62 62 62 62 62 61
80 80 80 81 81 81 81 82 82 82 82 82 82 82 82 83 82 81 80 79 79 78 77 76 76 77 77 77 77 76 75 74 72 71 70 68 66 67 68 68 67 67 67 67 66 65 64 64 65 65 65 64 63 63 63 63 63 63 63 63 63 64 64

ECMWFFLT1_250_spd_036.txt.gz
Wind_Speed
34 35 37 40 42 42 40 38 37 36 35 34 34 34 35 34 33 32 31 31 32 35 37 38 40 44 48 49 46 45 44 44 45 45 44 40 40 41 38 36 37 37 36 37 38 39 38 38 38 39 41 42 44 43 41 41 43 44 45 44 43 42 41
34 35 38 40 41 40 37 35 33 33 32 31 31 32 33 33 32 32 31 31 31 33 36 37 38 41 45 48 48 48 47 46 46 46 45 42 40 39 36 35 37 38 39 41 41 40 40 40 41 41 41 42 43 43 42 42 44 46 47 47 48 48 47
33 34 35 36 35 33 32 30 29 29 30 30 30 30 31 31 31 31 31 31 31 33 35 37 39 40 42 44 46 47 47 47 47 46 47 46 44 43 41 40 42 43 44 45 44 42 41 40 40 40 40 42 42 42 42 43 45 47 48 50 51 51 49
30 31 30 30 29 29 29 27 27 27 28 28 29 29 29 29 29 29 29 30 31 33 35 37 39 41 42 43 44 44 45 46 46 46 46 47 48 47 47 46 46 46 47 47 47 46 44 41 40 39 39 41 41 41 42 44 47 49 51 52 52 52 50
31 30 29 29 29 29 29 26 24 24 24 24 25 26 26 26 26 26 26 27 29 31 33 36 38 41 43 44 45 45 45 46 46 47 48 49 50 50 50 50 50 50 50 50 50 50 49 46 43 41 40 41 42 42 43 45 47 50 52 53 52 51 50
36 36 36 36 34 31 29 26 25 23 21 19 20 20 21 22 23 23 24 24 25 27 30 33 36 39 42 44 46 47 48 48 48 49 50 51 52 52 52 52 53 53 53 53 53 53 52 50 47 45 43 43 44 45 46 46 46 48 50 50 50 50 50
41 43 44 42 38 34 30 27 26 24 22 21 21 21 21 22 22 22 21 21 21 23 25 28 31 34 38 41 44 46 48 49 50 51 52 53 54 55 56 56 56 57 56 56 55 54 53 51 50 49 47 46 45 46 48 48 48 48 48 49 49 49 50
42 43 45 43 41 38 34 30 28 27 27 27 27 28 29 29 27 25 24 23 22 21 22 24 26 29 31 34 36 39 41 44 46 48 49 51 53 54 56 57 57 57 55 53 52 51 50 49 49 50 50 50 50 49 50 51 51 50 50 51 51 51 50
43 43 44 42 41 40 37 35 34 34 34 34 34 34 36 36 35 33 31 29 28 26 26 26 26 28 29 29 30 31 33 35 37 39 41 42 44 46 47 48 48 48 48 47 46 46 46 46 47 48 49 51 53 54 54 54 54 54 54 53 53 51 50
46 45 45 43 41 40 40 41 41 41 40 40 38 38 40 41 41 40 38 36 35 33 32 31 30 30 30 30 30 30 30 31 33 34 35 36 37 38 39 40 41 41 41 42 42 43 44 45 46 47 48 50 52 55 56 57 58 58 58 56 54 52 51
47 47 46 45 43 41 41 42 44 45 44 44 42 42 43 45 45 43 41 40 40 39 38 36 34 33 32 32 32 32 31 31 32 33 34 35 36 37 37 38 39 40 40 41 42 43 44 46 47 47 48 48 50 52 54 56 57 58 59 58 56 54 53
48 47 47 46 45 43 42 43 45 46 47 47 47 47 48 49 49 47 45 43 43 43 41 40 38 36 35 35 35 35 34 34 33 33 34 35 36 36 37 38 39 40 41 42 44 45 46 46 47 48 48 49 49 50 51 52 53 54 55 56 56 55 55
49 48 48 48 47 46 45 46 47 48 49 50 51 52 52 52 52 50 48 47 47 46 45 43 41 40 38 38 38 38 38 37 37 36 37 37 38 38 39 40 40 42 43 44 45 46 47 48 48 49 49 49 49 50 51 52 52 52 52 53 53 54 55
52 50 49 49 49 49 49 50 50 50 52 54 55 56 56 56 55 53 51 50 50 49 48 46 44 43 42 41 41 41 41 42 42 42 41 41 41 41 42 42 42 43 44 45 46 47 48 49 49 50 50 50 50 51 52 52 52 53 53 52 52 52 53
56 54 53 52 51 51 53 54 54 54 54 56 58 59 59 59 59 58 56 55 53 52 51 49 47 46 45 45 45 45 46 46 47 48 47 46 46 45 45 45 45 46 46 46 47 48 48 49 50 50 51 51 51 52 53 53 54 54 54 54 54 54 54
61 60 58 57 55 54 56 57 58 59 59 59 60 60 61 61 61 60 59 57 56 54 54 52 51 49 48 48 47 47 47 49 51 52 52 50 49 48 48 48 49 49 49 49 49 50 50 51 51 51 52 52 52 53 53 53 55 56 56 56 57 57 57
65 64 63 62 61 60 60 60 61 62 64 64 64 63 63 62 61 60 59 57 57 56 55 54 53 51 51 50 49 47 50 54 56 56 55 52 51 51 50 51 51 52 52 51 52 52 52 53 53 53 53 53 54 53 53 53 54 55 55 55 56 57 57
66 68 67 66 66 65 65 65 65 65 66 67 67 67 65 64 62 60 59 58 58 58 57 56 55 54 53 52 51 52 57 60 59 58 56 54 53 52 52 52 53 53 53 53 53 54 54 54 54 54 53 54 54 53 52 52 53 53 53 54 54 55 56
63 66 68 69 70 70 69 68 67 67 66 67 67 66 66 64 63 62 62 62 61 61 60 60 59 58 56 55 55 59 62 62 60 58 57 55 54 53 53 54 54 54 55 55 55 55 55 54 53 53 52 52 53 52 50 50 51 51 50 51 52 54 54
54 59 64 68 70 71 71 70 69 68 66 66 66 66 66 67 67 67 67 66 64 64 63 63 64 64 63 61 62 63 63 61 59 58 57 57 56 55 55 55 55 56 56 56 56 55 54 53 51 51 50 49 49 49 48 47 48 48 48 48 50 52 53
55 59 64 69 71 72 72 72 71 71 70 69 68 67 68 68 68 68 68 68 67 65 64 63 63 64 64 64 64 63 62 60 59 58 57 57 56 56 55 56 57 57 57 57 56 54 52 50 49 49 48 47 47 47 47 47 47 47 47 48 48 50 51
64 67 69 71 72 74 74 74 74 74 73 71 70 69 69 68 68 68 68 68 67 65 65 63 61 61 63 64 65 64 63 62 60 59 58 57 56 56 57 57 58 57 56 55 54 52 50 48 46 47 48 47 47 47 48 49 49 49 49 49 49 49 50
71 71 71 71 72 73 74 75 76 76 75 73 71 72 72 73 72 71 71 69 67 66 65 63 62 65 68 67 66 66 65 62 59 57 56 56 56 57 58 58 57 55 54 52 52 50 49 47 47 48 50 49 49 48 49 50 51 51 51 51 51 51 51
74 74 74 73 72 71 71 72 73 74 74 74 74 74 74 74 74 74 74 74 73 71 68 66 68 72 72 69 68 68 65 62 59 57 55 55 55 55 55 55 54 53 52 50 49 48 47 47 49 51 52 51 51 51 51 51 51 52 52 52 52 51 52
75 76 76 75 74 72 70 69 69 70 70 71 71 72 73 73 73 75 76 76 76 74 73 74 77 77 74 73 72 70 67 64 62 61 59 56 53 49 48 49 49 50 51 51 49 48 48 49 52 53 54 54 55 55 54 53 53 53 53 53 52 52 52
72 72 73 74 73 72 71 70 68 67 68 70 70 70 71 72 72 74 74 75 75 75 75 78 79 78 77 75 72 69 67 65 64 64 62 59 55 52 51 52 53 53 55 55 54 53 54 55 55 54 55 56 58 58 57 55 55 56 55 55 55 55 54
73 72 72 73 72 71 69 66 64 61 60 62 66 68 69 71 71 72 73 75 76 75 75 76 76 75 75 73 70 68 67 67 67 66 65 63 60 59 58 58 59 59 59 59 58 58 58 59 58 56 55 57 59 60 60 60 61 61 59 57 57 57 55
76 76 76 76 76 74 71 69 68 65 63 64 68 70 72 73 73 74 75 75 75 75 74 74 75 75 74 73 72 71 71 72 71 70 68 67 67 66 65 64 65 66 65 64 64 63 62 62 62 61 60 60 60 61 63 65 65 64 61 59 59 60 60
75 75 76 76 76 76 75 74 74 74 75 76 77 77 78 78 77 77 76 75 75 75 75 75 75 76 76 76 75 75 75 75 75 74 72 71 72 73 72 72 72 72 71 70 69 70 68 67 66 65 65 65 65 66 68 69 69 68 65 65 66 67 68
74 74 74 74 74 74 74 74 74 75 77 78 79 79 79 79 79 78 77 76 76 76 75 74 74 76 77 78 78 78 78 78 78 77 75 73 74 74 75 76 75 74 73 72 71 71 70 68 67 67 67 67 69 71 71 71 71 71 71 73 73 72 71
73 73 73 73 73 73 74 75 74 75 76 77 78 78 79 79 79 79 78 78 78 78 76 76 76 78 80 80 81 81 80 80 80 79 78 76 75 75 75 74 72 71 71 70 69 68 67 67 67 67 67 68 69 70 71 71 71 72 73 74 73 72 70
74 74 74 74 73 73 74 74 75 75 75 76 77 78 79 79 79 80 80 80 81 80 80 80 82 84 84 84 85 84 82 80 77 75 75 75 73 72 71 70 69 69 68 66 65 64 63 63 64 66 67 68 69 70 71 71 71 72 73 73 72 71 70
74 75 75 75 74 73 73 74 75 75 75 76 77 78 79 80 80 81 81 82 82 82 81 81 80 81 81 81 82 81 78 75 70 67 67 66 64 65 66 66 67 67 65 63 63 63 62 62 62 64 66 68 69 70 72 72 71 71 72 72 71 70 69
75 74 74 73 71 70 70 71 71 71 72 72 73 75 76 77 77 78 78 78 79 78 78 78 77 78 78 78 77 76 74 71 68 67 67 66 65 65 66 66 67 68 67 66 65 64 63 63 62 62 63 65 66 68 69 69 68 67 67 67 66 65 65
79 78 78 77 74 71 69 69 69 69 70 70 70 71 72 73 73 74 74 74 74 75 75 77 78 79 79 79 78 77 75 72 71 72 72 71 70 70 71 72 72 71 70 69 67 66 65 64 64 63 63 63 64 64 65 66 66 65 64 64 63 63 63
83 83 83 82 81 79 77 75 74 73 73 73 72 73 73 74 74 75 75 75 74 74 75 77 78 79 80 80 80 79 77 75 76 76 76 74 72 73 76 78 76 73 72 71 70 69 67 66 66 66 66 65 65 64 64 65 66 66 65 64 64 64 64
84 84 84 85 85 84 83 82 81 79 78 78 77 76 76 77 76 77 78 78 77 76 76 78 79 81 82 82 82 81 80 81 81 80 79 77 75 76 79 80 77 75 74 73 72 71 70 69 68 68 69 68 68 67 66 66 66 67 66 66 66 66 66

ECMWFFLT1_250_spd_039.txt.gz
Wind_Speed
41 39 36 34 34 34 34 33 33 33 34 35 37 38 37 35 35 35 33 32 32 32 32 33 33 34 34 34 35 34 35 37 40 40 39 39 39 40 42 44 45 44 43 41 40 42 44 46 47 44 41 38 37 37 38 40 41 42 42 41 40 39 38
43 41 38 35 34 35 37 36 35 34 34 35 36 35 34 33 32 31 29 29 29 30 31 32 33 33 34 34 34 34 34 36 39 41 41 40 39 38 39 40 41 41 42 42 42 44 45 46 47 47 45 43 42 42 42 42 42 43 44 44 43 43 41
42 41 39 36 35 35 37 36 34 33 32 32 33 33 32 30 28 27 26 26 27 28 30 31 31 32 32 33 34 34 35 36 38 40 42 42 41 40 39 39 40 40 42 42 43 44 45 45 46 46 46 46 46 46 46 45 44 45 45 45 44 43 43
42 41 40 38 36 35 35 34 33 32 30 28 30 31 31 28 24 22 22 23 24 26 28 29 30 31 31 32 33 34 34 36 37 39 41 43 43 43 41 41 40 41 43 44 45 44 44 44 45 47 48 49 50 50 50 49 48 48 48 47 45 43 42
45 45 43 39 36 33 34 34 33 34 32 32 33 32 30 27 22 20 21 21 22 23 24 25 26 27 29 30 31 32 33 35 36 38 40 41 43 44 44 43 43 43 45 46 46 46 46 46 47 49 50 51 52 53 53 51 50 50 50 49 47 44 43
46 46 44 40 36 34 35 36 37 38 38 39 40 37 34 30 27 25 24 23 24 23 23 22 22 22 23 25 27 29 31 33 35 37 38 40 42 43 43 44 44 45 46 47 48 48 49 50 51 51 52 53 54 54 53 53 52 51 51 51 50 48 45
44 44 44 42 39 38 39 41 42 44 44 45 45 44 41 37 34 32 30 30 29 28 27 25 24 23 22 21 22 23 25 29 32 35 37 39 40 42 43 45 45 46 47 48 50 51 53 54 54 54 54 54 55 54 53 53 52 52 51 50 51 50 49
43 44 45 45 44 44 45 45 46 46 46 46 46 46 44 42 41 39 38 38 36 35 33 30 28 27 27 26 24 24 24 25 27 30 33 36 38 40 42 44 46 48 49 50 51 53 54 55 55 55 54 54 54 53 52 51 51 49 49 48 48 49 50
45 46 47 48 49 49 49 48 47 47 47 47 46 46 46 45 45 44 43 42 41 40 38 35 33 32 32 32 31 29 28 26 27 28 30 32 34 36 38 40 43 45 47 48 49 49 50 50 50 50 50 50 50 49 48 48 48 47 47 47 47 48 49
51 51 51 52 52 52 51 50 49 48 49 50 49 49 48 47 46 45 44 43 42 41 40 39 38 37 37 37 36 34 31 30 29 29 30 31 32 34 35 37 38 40 41 42 43 43 43 44 44 45 45 46 47 46 46 47 47 47 47 47 48 48 49
54 54 54 54 54 54 53 52 51 49 49 49 50 50 49 48 46 45 45 44 43 42 42 42 41 40 40 40 40 38 36 34 33 33 32 33 33 34 35 36 37 37 38 38 39 39 40 40 41 42 43 45 45 46 47 48 48 48 49 49 49 50 50
51 52 53 54 54 55 56 55 54 52 50 49 49 49 49 48 48 47 46 46 45 45 45 45 44 44 43 43 43 43 41 40 38 37 36 35 35 36 36 37 37 38 38 38 39 40 40 40 41 42 43 44 45 46 47 48 49 50 50 50 51 51 52
45 47 49 51 53 55 56 57 57 56 54 53 51 50 49 49 49 49 48 48 49 49 49 49 48 48 47 47 46 46 46 45 43 41 39 38 38 39 39 39 39 40 41 41 43 44 45 45 44 44 45 46 46 47 48 48 49 50 50 51 52 52 53
41 42 45 48 50 53 55 57 57 57 57 56 55 53 52 51 51 51 52 52 53 53 53 53 52 51 51 51 50 50 50 49 47 45 43 42 41 42 42 43 43 42 42 43 45 48 49 50 49 48 48 48 48 48 48 48 48 50 50 51 52 53 53
37 38 41 44 47 50 52 55 57 57 58 59 59 58 57 55 55 54 55 55 55 55 55 55 54 54 54 54 54 54 53 53 52 49 47 45 45 45 46 47 48 47 47 47 49 51 52 52 52 51 51 50 50 49 49 48 49 49 50 51 52 52 53
43 47 47 47 48 50 52 55 57 58 59 60 60 60 60 59 59 58 58 57 57 56 56 56 56 56 56 57 57 57 57 57 55 52 50 50 49 49 49 50 51 52 52 54 55 56 56 54 53 53 52 51 51 51 51 51 51 51 51 52 53 53 53
42 49 53 56 58 58 57 58 59 60 61 61 62 62 62 63 63 63 63 62 60 59 58 58 57 56 56 56 57 58 59 58 56 55 54 53 52 53 53 54 53 54 56 58 59 59 58 56 54 54 54 53 53 52 52 53 53 53 53 54 55 54 53
36 40 45 48 49 51 53 55 57 59 61 62 63 64 63 64 65 65 65 65 63 62 61 59 59 58 57 57 58 59 59 58 58 57 57 56 55 57 57 58 58 58 60 61 61 60 59 57 56 55 56 55 54 52 52 53 54 54 54 54 55 54 54
43 42 40 38 37 40 45 49 52 55 58 60 61 62 62 63 64 64 65 64 63 62 61 60 59 59 59 59 60 61 61 61 60 60 58 57 57 58 59 60 61 62 63 63 62 60 58 57 57 56 56 56 55 53 52 52 53 53 52 53 54 54 54
51 48 45 44 42 41 43 47 52 55 58 60 60 61 61 61 62 63 63 63 63 62 62 62 62 62 62 62 63 63 64 63 63 62 60 59 59 59 60 61 62 62 62 62 61 59 58 57 57 57 57 57 57 55 53 52 51 51 50 50 51 52 52
57 57 57 55 50 46 46 49 53 55 56 58 60 60 60 60 60 60 61 62 63 64 65 65 66 67 68 68 68 69 68 68 67 66 65 65 65 64 63 62 62 61 61 60 59 60 59 58 57 57 58 58 58 57 55 53 52 51 50 49 50 50 51
53 58 61 61 59 58 60 59 57 56 53 52 54 55 57 59 60 62 64 65 66 66 67 68 69 70 71 71 72 72 72 71 71 71 70 70 70 69 67 66 66 66 65 64 64 64 62 60 59 60 60 60 59 58 57 55 55 55 54 52 52 52 51
54 57 62 65 67 68 64 59 55 54 53 52 51 53 57 60 63 65 67 67 67 68 68 69 69 70 71 71 72 72 72 73 73 73 72 71 71 71 71 71 72 72 71 70 69 67 65 64 63 63 62 61 59 58 57 57 58 57 56 56 56 55 53
62 63 66 68 67 62 56 52 51 51 52 54 55 56 58 60 63 65 66 67 68 68 69 70 71 72 72 72 73 73 73 74 74 73 72 71 72 72 72 72 72 72 72 71 69 68 67 66 66 64 63 61 59 57 57 58 59 57 56 57 58 58 56
62 60 60 56 50 46 45 49 52 52 52 55 57 58 60 61 63 65 64 65 65 66 68 71 72 73 74 75 75 75 75 74 73 72 71 71 72 72 72 72 71 71 70 69 67 67 66 66 66 65 63 61 60 59 59 60 60 59 58 58 60 61 60
60 56 54 49 46 46 48 53 57 57 57 59 61 63 65 66 67 67 67 66 65 66 69 70 72 73 74 74 74 73 73 71 70 70 69 70 71 72 73 73 72 71 70 68 67 66 65 65 65 65 65 64 63 63 64 64 64 63 62 63 65 66 65
63 60 58 56 56 58 60 63 66 67 67 69 72 73 73 71 70 69 69 69 68 69 70 71 72 73 73 72 71 69 68 68 69 70 70 71 71 71 71 71 71 71 71 70 69 68 68 68 68 68 68 68 68 68 69 69 68 67 67 68 69 70 70
68 68 67 66 67 68 70 73 76 78 80 81 82 81 80 78 75 74 74 74 74 74 74 74 74 74 74 72 70 69 69 70 71 72 72 72 71 69 69 70 71 71 72 71 71 71 71 71 71 70 70 71 72 73 73 72 72 72 72 71 71 72 72
77 77 78 78 79 80 81 83 84 86 87 87 86 85 84 83 81 80 79 79 79 78 78 77 76 75 74 72 72 72 73 74 74 74 73 73 73 72 72 72 73 73 73 73 74 74 74 74 74 74 75 75 76 77 76 75 74 73 71 69 68 69 69
79 79 80 81 82 83 84 85 86 87 88 88 88 87 86 85 84 82 81 80 80 79 78 76 75 74 74 75 75 76 76 76 76 75 75 74 74 74 74 75 76 76 76 76 77 77 78 78 77 77 77 77 78 77 76 74 72 69 67 66 64 63 63
77 77 78 78 79 80 81 82 83 84 84 84 85 84 84 83 83 81 80 80 80 78 77 76 75 75 76 77 77 77 77 77 77 77 77 76 76 76 77 78 79 80 80 80 80 81 81 80 79 77 75 74 74 72 69 68 67 66 65 63 61 61 61
75 76 77 77 78 79 79 80 80 80 80 80 81 81 81 80 80 79 79 79 78 77 77 77 76 77 77 77 78 79 79 79 79 80 80 80 79 80 81 82 83 83 83 83 82 81 78 75 73 72 71 70 68 65 63 64 64 64 64 63 63 63 63
76 77 77 78 78 78 78 79 79 79 79 79 79 79 79 79 79 79 78 78 78 78 79 79 79 79 80 80 81 81 82 82 83 84 84 84 83 83 84 84 84 84 84 83 81 78 75 71 68 67 68 68 67 66 64 64 64 65 65 66 67 66 65
77 77 78 78 78 78 78 78 79 79 79 79 79 79 80 80 79 79 79 79 79 79 80 80 80 81 81 82 83 83 84 84 85 85 85 85 83 81 81 80 80 82 83 82 80 77 75 73 70 69 69 69 70 70 69 68 68 68 69 69 69 69 67
76 76 76 77 76 76 77 77 77 78 78 78 78 78 78 79 79 79 79 79 79 79 79 80 80 80 81 81 82 82 82 82 82 81 82 81 79 77 77 77 78 81 81 81 79 77 75 73 71 70 70 70 71 72 72 71 71 70 71 71 70 70 69
75 75 75 75 75 75 75 75 75 75 75 74 74 74 75 76 77 76 76 76 75 75 76 77 77 77 78 79 78 78 79 79 78 77 78 78 76 76 76 76 79 82 82 81 80 78 75 74 72 71 71 71 71 71 71 71 71 71 71 71 71 70 70
77 77 77 77 77 77 77 77 76 76 75 74 74 74 74 74 75 74 73 72 72 71 72 73 74 75 75 76 76 76 77 77 77 77 78 78 77 78 78 79 81 84 84 83 82 80 78 76 75 73 73 74 74 73 72 72 72 73 73 73 73 73 72

ECMWFFLT1_250_spd_042.txt.gz
Wind_Speed
45 46 44 43 42 41 40 40 40 39 38 37 36 34 33 34 33 30 26 25 26 27 26 24 24 26 28 31 32 32 31 30 30 29 29 29 28 30 34 37 37 37 38 39 39 39 37 36 36 36 38 39 39 39 39 40 40 40 39 40 41 42 42
47 47 47 46 45 44 43 42 41 40 39 37 36 35 34 34 32 27 24 23 24 25 24 25 26 28 29 31 32 32 31 30 29 29 30 30 28 28 31 35 38 38 38 39 40 41 40 38 38 39 40 41 42 42 42 43 43 44 45 45 46 46 46
49 49 49 48 48 47 46 45 44 43 41 40 39 37 34 33 30 27 26 26 26 26 26 28 29 30 30 31 31 31 30 29 28 28 29 29 29 28 28 32 36 39 39 38 38 39 40 40 41 41 43 44 44 44 43 43 44 45 47 48 48 48 49
48 48 48 47 47 47 47 47 46 45 44 42 41 38 34 32 30 29 29 30 31 31 31 32 32 32 32 32 32 31 30 28 26 26 27 28 28 28 28 29 32 35 38 38 37 38 38 40 41 43 44 45 45 45 44 44 44 45 46 49 49 50 50
44 45 46 46 46 46 47 47 47 46 45 42 41 38 34 32 31 31 33 35 36 36 36 35 34 34 34 34 33 32 30 28 26 25 25 26 26 27 28 29 29 31 33 36 38 38 39 39 41 43 44 45 45 45 45 45 46 46 48 50 51 51 52
43 43 42 41 41 42 43 43 44 43 42 40 38 36 35 35 35 35 36 38 38 38 37 36 35 36 36 36 35 32 30 28 27 26 26 26 27 27 27 28 28 29 30 33 36 38 39 40 42 44 45 45 46 47 47 48 48 49 49 50 50 50 50
45 43 40 38 39 40 41 41 41 40 39 38 38 37 37 37 37 38 38 38 39 38 38 37 37 38 39 38 35 33 31 29 28 28 27 28 28 28 28 28 27 27 29 30 32 34 36 38 40 42 43 44 45 46 47 48 48 48 48 47 47 46 45
49 47 44 42 42 43 45 45 44 44 43 42 42 41 40 39 38 38 38 38 38 38 38 38 39 40 40 38 36 35 33 32 31 30 29 28 28 29 29 29 29 29 29 29 30 30 31 33 35 36 37 37 38 39 40 41 42 42 43 43 43 42 42
51 51 49 49 49 49 50 50 49 48 47 47 46 45 43 41 39 37 37 37 38 39 40 40 41 41 39 38 37 37 36 35 35 34 32 30 30 30 31 32 32 32 32 32 32 32 32 32 33 33 32 31 32 34 35 36 37 38 39 40 41 41 41
51 52 53 54 53 53 54 54 53 51 49 47 46 45 44 43 40 38 37 37 38 39 40 41 41 40 39 38 38 38 38 37 37 37 36 35 34 34 35 35 36 35 35 35 35 35 35 35 35 34 33 32 32 34 36 37 39 40 40 41 42 42 42
50 51 53 54 55 56 57 58 57 54 50 47 44 42 42 41 41 40 40 39 39 40 40 40 40 40 40 40 40 39 39 39 39 39 38 38 37 37 38 38 39 38 38 38 38 37 37 38 38 38 38 37 37 38 38 39 41 43 44 44 45 45 45
50 51 51 52 53 55 56 57 56 53 49 46 44 42 41 40 40 41 42 42 42 42 42 42 42 42 42 41 41 41 40 40 40 40 40 40 39 40 40 40 41 41 41 41 40 40 40 40 40 41 42 42 43 42 42 42 44 45 46 47 48 48 48
51 51 51 51 51 51 51 50 48 45 43 43 42 41 40 40 40 41 42 43 43 43 43 43 44 44 44 44 43 43 42 42 42 42 42 42 42 42 42 43 43 43 42 42 41 41 42 43 43 44 45 46 47 47 47 48 47 47 48 49 49 49 50
50 50 50 49 47 46 44 43 41 39 38 38 38 38 39 40 41 42 42 43 44 44 45 46 47 47 47 47 47 46 46 46 46 45 45 45 45 45 45 45 45 45 43 43 42 43 44 45 46 47 48 49 50 51 53 53 52 51 52 52 50 50 51
44 45 45 42 39 38 38 39 39 39 38 39 39 39 39 40 41 42 43 44 46 47 48 49 50 50 50 51 51 51 50 50 49 49 48 48 48 48 48 48 47 46 45 44 44 45 46 47 48 49 50 51 52 54 55 56 56 56 56 54 52 51 52
40 38 37 35 35 37 40 41 41 41 41 42 43 43 43 43 45 46 47 48 49 50 51 52 52 53 53 53 53 53 53 52 51 51 50 50 50 50 50 50 49 48 47 47 47 48 49 49 50 51 51 52 53 54 54 55 56 56 55 54 53 53 54
39 35 34 35 36 39 42 45 47 47 47 47 47 48 49 51 52 53 54 54 55 56 56 55 55 54 54 54 54 54 53 53 53 52 52 51 51 51 51 51 51 51 51 51 51 51 51 50 50 50 51 52 53 53 53 52 53 53 53 52 52 53 54
45 41 41 42 42 43 43 45 47 48 48 50 50 51 53 54 55 55 56 57 57 57 55 53 52 52 53 54 55 56 56 55 54 52 51 51 51 52 53 54 54 55 55 54 53 53 51 51 51 52 52 53 53 53 53 53 54 55 55 53 52 52 54
51 49 50 50 50 49 47 45 46 46 46 46 47 49 53 55 55 55 55 55 54 53 52 52 53 55 57 57 57 57 56 53 51 51 52 53 54 55 55 56 56 56 56 56 56 55 55 54 55 55 55 55 54 54 55 57 59 59 58 56 54 54 55
52 52 53 55 55 54 52 49 49 49 49 48 48 48 50 52 53 53 52 54 55 56 57 59 61 61 61 59 57 55 53 52 53 54 56 56 57 57 57 57 57 57 58 58 58 59 59 58 58 58 57 56 55 55 56 59 60 60 59 58 57 57 57
53 54 56 57 57 57 57 56 56 55 55 54 53 53 54 53 51 50 51 51 53 55 57 58 58 58 57 55 55 54 54 55 57 57 58 58 59 60 60 60 60 61 61 61 62 62 62 62 61 61 60 59 58 57 57 58 58 58 58 57 57 58 58
54 56 57 58 58 58 59 61 61 60 59 60 60 60 61 59 55 53 52 52 52 53 54 55 55 54 54 54 54 56 57 58 59 59 60 60 61 62 63 63 63 63 63 63 63 63 63 62 62 61 61 61 60 59 58 57 57 57 57 56 57 59 58
54 57 58 58 59 59 61 63 64 63 62 64 65 65 65 65 62 59 58 58 58 58 57 57 57 57 56 56 56 56 57 59 60 60 61 62 62 63 64 64 64 63 63 63 63 63 62 62 62 62 63 63 62 61 59 58 58 58 58 57 58 59 60
53 55 57 58 58 59 62 65 66 65 65 65 66 66 67 68 68 65 64 64 64 64 64 63 62 60 58 56 55 56 58 58 59 60 63 65 66 66 67 67 66 66 66 66 65 64 64 63 64 64 64 64 63 62 61 61 61 61 61 60 60 61 62
50 51 52 52 54 56 59 62 63 64 64 62 62 63 64 66 68 68 67 67 68 69 69 68 65 62 59 57 57 59 61 62 64 67 70 72 73 72 72 71 71 70 69 69 68 67 67 66 67 66 66 65 64 64 64 64 64 63 63 63 63 63 64
53 53 52 52 53 56 59 61 62 64 64 62 62 63 64 64 67 69 71 72 73 73 70 67 65 63 62 62 63 65 68 71 74 76 77 77 76 75 74 72 71 69 68 67 67 67 67 67 69 69 69 68 67 67 67 67 66 65 65 65 65 65 66
60 61 61 62 62 64 65 66 67 69 70 68 67 68 69 71 74 75 75 74 73 72 70 68 66 66 67 68 69 72 75 78 79 79 78 77 76 74 72 69 66 64 63 64 64 65 66 67 69 70 71 71 71 71 71 70 69 69 68 68 67 67 68
67 67 69 70 71 72 73 73 73 74 74 74 72 72 74 75 74 73 72 71 70 69 70 70 71 72 73 74 77 79 81 82 80 79 78 76 73 71 68 63 60 60 62 63 64 64 66 68 70 71 72 72 73 73 74 73 72 72 72 72 71 71 71
74 74 74 75 75 75 75 76 75 75 75 77 76 75 76 75 72 69 69 70 71 72 73 75 76 78 81 83 84 85 84 82 79 77 75 72 69 67 66 63 62 63 65 66 67 67 69 71 72 72 73 73 74 75 75 75 75 75 74 75 75 75 75
79 79 78 77 77 76 76 76 76 75 75 77 78 79 79 79 77 75 76 77 79 80 80 82 83 86 87 88 87 85 82 79 77 74 71 67 65 64 65 65 64 65 67 68 70 72 73 74 74 73 74 75 76 76 77 77 77 76 76 77 77 78 76
82 81 80 78 78 77 77 77 77 77 76 77 79 81 83 84 84 83 84 85 86 87 88 89 90 90 90 88 85 83 80 77 75 72 68 64 63 63 65 66 67 68 70 72 74 75 76 76 75 76 76 76 78 80 80 78 76 76 77 77 77 76 75
83 82 82 81 80 79 78 78 78 78 79 79 80 82 83 85 87 88 89 90 90 91 91 90 90 89 87 85 83 81 79 77 75 73 70 68 67 67 68 71 73 74 74 76 77 78 77 77 78 78 78 78 80 81 79 75 75 76 76 75 75 74 73
83 83 82 82 82 81 80 79 79 79 79 80 80 81 82 83 84 85 86 87 87 87 86 86 85 85 84 83 82 81 80 78 77 76 74 72 72 72 73 74 76 76 77 78 80 80 80 80 81 81 81 81 82 81 77 75 76 76 75 74 74 73 73
83 82 82 82 82 82 82 81 81 81 81 81 81 82 82 83 83 83 84 84 84 84 84 83 83 83 83 83 83 82 81 80 80 79 78 77 76 76 77 78 78 78 78 80 81 81 81 81 81 81 81 81 82 81 79 77 77 75 74 74 74 74 73
83 83 82 82 83 83 83 83 83 83 83 83 83 84 84 84 84 84 85 86 86 86 86 85 85 85 84 85 84 84 83 82 82 81 79 78 78 79 79 80 79 79 79 80 81 81 80 80 81 80 80 81 82 80 78 78 77 76 76 75 75 75 75
84 84 84 83 83 84 84 84 84 84 84 84 85 85 85 85 85 85 85 85 86 85 85 85 85 85 84 84 85 84 84 83 83 81 80 78 78 78 78 78 78 78 78 79 80 80 79 80 80 80 80 82 82 81 80 79 79 78 77 77 77 78 78
83 83 83 82 82 82 82 82 82 82 82 83 83 83 83 84 84 84 83 83 83 83 82 82 82 82 82 82 83 82 82 82 82 80 79 77 77 77 76 77 78 78 78 80 80 80 79 80 82 83 83 85 86 86 85 84 82 81 80 80 81 81 81

ECMWFFLT1_250_spd_045.txt.gz
Wind_Speed
40 40 39 39 39 39 39 39 39 38 38 38 38 38 38 38 38 37 36 35 34 34 33 31 28 26 23 24 25 26 28 29 29 29 28 26 24 21 18 17 16 15 18 23 28 31 32 32 35 37 38 39 38 38 37 37 38 39 40 40 41 42 42
42 41 41 40 40 40 40 40 39 39 38 38 38 38 37 37 37 37 36 35 35 34 33 30 28 27 27 27 27 27 29 29 28 28 27 25 24 23 20 18 16 16 16 18 22 28 32 33 34 35 36 36 37 38 38 39 40 42 43 43 44 44 45
41 41 41 41 40 40 40 40 40 40 39 38 37 36 36 35 35 35 35 35 35 34 32 30 29 29 29 29 28 29 29 28 27 27 26 24 24 23 21 19 17 16 16 16 18 22 27 32 34 36 37 37 37 38 39 40 43 45 45 45 46 47 47
40 40 41 41 40 39 38 38 38 38 37 36 34 33 32 32 32 33 34 33 33 32 31 30 30 30 30 29 29 29 29 28 26 25 25 24 23 23 22 20 18 17 17 17 18 19 22 26 30 33 36 38 39 40 41 42 44 46 46 46 47 48 48
41 41 41 41 40 39 38 37 37 36 35 32 30 30 30 30 30 31 32 31 31 31 30 30 30 31 31 30 30 29 29 28 27 25 24 24 23 23 22 20 19 18 18 18 18 19 21 23 25 27 29 32 35 38 41 43 45 46 47 47 47 48 48
41 41 41 41 41 41 41 40 38 36 34 32 31 31 31 31 31 32 33 33 33 33 33 33 33 32 32 30 30 30 29 28 27 25 25 25 25 24 23 21 20 19 19 19 19 20 21 23 24 25 26 27 29 32 35 38 42 44 45 45 46 45 45
42 41 42 43 43 44 44 43 41 39 37 37 37 36 36 37 37 37 38 38 38 37 37 37 36 34 32 31 30 30 29 28 27 26 26 26 27 26 25 24 23 22 22 22 22 22 23 23 24 25 26 27 28 30 32 34 36 38 40 41 41 41 40
45 43 43 45 46 47 47 46 45 44 43 42 42 42 43 43 43 43 43 42 41 40 38 37 36 34 32 31 30 30 29 27 26 26 27 28 28 28 27 26 26 26 26 26 26 26 26 25 25 25 26 27 29 30 31 32 34 35 36 37 38 38 38
48 46 45 47 49 49 50 49 48 47 47 46 46 46 46 46 46 45 45 44 43 40 38 36 35 34 32 31 31 31 30 29 28 27 28 28 29 29 29 29 29 29 29 30 30 30 29 29 28 28 28 29 31 31 32 33 34 35 36 37 38 39 39
49 49 49 49 50 51 52 52 50 49 47 47 46 46 46 46 46 46 45 44 42 40 38 36 35 34 33 33 33 32 32 32 31 30 30 30 30 31 32 32 33 33 33 34 34 33 32 32 32 32 32 32 32 32 33 35 36 38 38 39 40 41 43
50 51 50 50 50 50 51 52 51 49 48 47 47 46 46 46 45 45 45 45 43 41 39 37 36 35 34 35 35 35 34 33 33 32 32 33 33 34 35 36 37 38 38 38 37 36 35 34 34 34 35 35 34 34 35 36 38 40 41 41 42 43 45
51 51 51 50 49 49 49 48 48 47 46 45 45 44 44 44 44 45 45 45 44 42 40 38 37 36 37 37 37 36 35 35 35 35 35 36 37 38 39 40 41 41 41 41 40 39 38 37 36 36 37 37 36 37 37 38 39 41 42 43 44 45 46
52 52 51 50 49 48 46 46 45 43 42 42 43 43 43 43 44 44 44 43 42 41 40 38 38 38 38 38 37 36 36 36 37 37 38 39 40 41 42 43 43 43 44 43 42 41 39 39 38 38 38 39 39 40 40 41 42 43 43 44 45 47 48
51 51 51 50 49 48 47 47 46 45 45 45 45 45 44 44 43 42 42 41 40 40 39 38 37 37 37 37 37 37 38 38 39 41 42 43 44 44 44 43 44 46 46 45 43 42 41 40 40 40 40 40 41 43 44 45 45 45 45 45 47 49 50
50 50 51 51 51 51 50 50 49 48 47 47 46 46 44 43 42 41 40 40 40 39 39 38 38 39 39 40 40 41 42 43 45 46 48 48 47 44 43 44 47 48 48 46 44 43 42 43 44 44 43 43 43 45 46 46 47 47 48 48 49 50 51
48 48 49 49 48 47 46 47 48 48 46 46 46 45 43 42 40 40 40 40 41 41 41 42 42 43 43 44 45 47 47 48 49 49 49 47 44 42 45 49 51 50 49 46 44 43 44 46 46 46 45 45 46 46 47 48 49 50 50 51 51 52 52
46 45 46 46 45 44 44 45 45 44 43 43 44 43 42 42 41 41 41 42 43 43 44 44 45 46 47 48 48 49 49 49 48 47 45 43 43 47 51 53 53 52 49 46 45 45 46 47 47 48 48 48 48 49 49 50 51 51 52 52 53 53 53
45 45 45 45 45 45 45 46 46 44 41 40 41 41 41 41 42 42 43 43 43 45 46 47 47 48 48 49 48 48 48 47 46 46 46 46 50 54 55 53 52 52 49 47 47 47 48 48 48 48 49 49 50 51 52 53 53 53 53 53 53 53 52
43 44 44 44 45 46 46 47 48 48 46 44 45 46 45 44 45 45 45 45 46 47 48 48 49 49 48 48 48 48 48 48 48 50 51 53 55 55 52 50 49 49 48 48 48 48 48 48 48 49 50 52 54 54 55 56 56 56 55 54 53 53 53
43 44 43 43 46 47 47 49 51 51 51 49 49 50 51 51 51 51 51 51 51 51 51 51 52 52 52 52 52 51 51 51 51 52 53 54 53 51 49 48 48 48 48 48 49 50 50 50 51 53 56 58 59 59 59 59 58 58 57 55 54 54 55
41 43 43 44 46 47 49 52 54 54 54 53 53 54 55 55 55 54 54 55 55 55 55 56 56 57 57 56 56 55 54 53 52 52 53 53 52 50 49 49 50 50 50 51 52 54 54 55 56 60 63 64 63 61 60 59 58 58 56 55 55 55 56
44 46 48 49 50 50 51 53 54 54 54 54 54 55 56 56 55 55 56 57 57 58 59 59 60 60 60 59 58 57 56 54 54 54 54 54 53 52 52 53 54 54 55 56 57 57 58 60 63 67 68 66 64 62 60 59 57 56 55 55 55 56 57
49 49 51 53 53 54 54 54 54 54 54 55 55 54 54 55 56 56 57 58 59 60 61 61 61 61 61 60 59 58 57 57 56 56 56 57 57 57 58 59 60 60 60 60 60 61 62 65 69 72 70 67 64 62 60 58 56 55 55 55 56 57 58
50 50 53 55 56 56 57 57 58 58 57 57 56 55 55 56 58 58 58 59 60 60 59 58 58 58 58 58 58 59 60 60 60 60 60 61 62 63 63 63 63 62 62 63 64 65 68 71 74 73 70 66 64 62 60 58 56 55 55 56 57 59 59
53 54 56 57 58 59 59 60 60 60 60 58 57 58 58 59 59 59 59 59 60 60 59 57 57 58 59 59 60 61 61 62 63 64 65 66 66 66 65 65 65 65 66 67 68 70 73 76 76 72 67 65 63 60 58 57 56 56 56 57 58 59 60
57 57 58 58 59 61 61 61 61 61 60 59 58 58 59 59 60 60 61 61 62 62 61 60 60 61 62 62 63 63 63 64 66 67 69 69 68 68 67 68 68 69 70 71 73 76 77 77 74 69 65 62 60 58 57 56 57 57 57 57 59 61 62
61 61 60 60 61 61 62 63 63 63 63 62 60 59 60 61 62 63 65 65 66 66 66 66 67 68 68 68 68 68 69 70 71 72 72 71 71 70 70 71 72 73 75 77 78 79 78 75 71 66 63 60 58 57 56 57 58 59 59 60 62 65 67
63 63 63 63 63 63 64 65 66 67 68 67 65 64 65 66 67 68 69 69 70 70 71 72 73 75 76 76 76 75 75 75 74 73 71 70 70 71 73 75 77 78 79 80 81 80 77 73 68 64 61 60 59 59 60 61 62 63 64 65 67 69 70
63 64 64 65 65 66 66 67 68 69 69 69 69 69 70 71 72 74 75 75 75 74 74 74 75 76 77 78 78 78 77 76 73 71 71 72 73 76 79 81 82 82 82 81 80 76 72 68 64 63 62 61 62 63 63 64 64 65 66 68 70 71 72
64 65 65 66 67 68 68 68 69 70 70 71 71 72 74 76 78 79 79 79 79 78 77 76 76 76 77 78 78 78 78 77 77 77 78 79 81 83 85 85 85 82 79 76 72 68 65 62 61 62 62 61 62 62 62 63 65 67 69 72 73 73 74
66 66 67 67 68 69 69 70 71 72 73 74 75 77 80 82 83 82 82 82 81 80 79 78 77 76 77 78 79 80 80 80 81 83 84 84 85 83 81 80 78 74 70 68 66 65 64 61 59 61 64 64 65 65 66 69 70 71 73 75 75 76 76
70 70 70 71 71 72 73 75 76 77 78 80 81 83 84 85 85 85 85 85 84 82 81 80 79 78 78 79 80 81 81 79 79 81 83 84 82 77 73 73 74 73 71 71 71 70 69 65 62 64 68 70 70 71 73 74 74 74 76 77 77 78 78
76 76 77 77 78 79 80 81 82 83 84 85 85 86 86 87 88 88 88 88 87 85 83 83 82 82 81 82 82 82 82 81 80 81 82 82 80 76 74 76 79 79 78 77 76 75 73 71 69 70 72 74 74 74 75 76 75 76 78 78 78 79 79
80 81 82 83 84 85 85 86 87 88 88 89 89 89 90 91 91 92 92 91 89 88 86 86 85 85 84 84 83 83 83 83 83 83 83 82 81 79 78 79 79 80 80 79 78 77 76 75 74 74 74 75 76 76 76 76 76 76 77 77 78 78 78
83 83 84 85 86 88 89 90 91 91 92 92 93 93 93 94 94 94 93 92 91 89 88 88 87 87 87 86 85 85 84 84 84 85 84 83 82 81 80 80 79 80 80 80 79 78 77 77 76 75 74 75 76 75 75 76 76 76 76 76 76 77 78
86 87 87 88 89 91 92 93 93 94 95 95 95 96 96 96 96 95 95 93 92 91 89 88 88 87 87 86 85 85 84 83 84 84 83 82 82 82 81 81 80 80 80 79 79 78 78 78 77 76 76 77 77 77 78 79 79 79 78 78 77 78 80
90 91 92 93 94 95 95 95 96 96 96 97 97 97 97 96 95 94 92 91 90 89 89 88 87 86 86 86 85 84 83 83 83 83 83 82 82 82 82 81 80 80 80 79 79 78 79 79 79 79 79 79 79 80 82 83 83 82 82 81 82 83 84

ECMWFFLT1_250_spd_048.txt.gz
Wind_Speed
42 42 43 43 42 41 39 38 38 38 38 37 36 35 35 35 34 33 33 31 30 30 29 27 25 24 22 21 22 23 24 24 24 23 22 21 19 17 16 14 13 12 11 11 10 10 14 21 26 27 26 27 30 32 33 34 35 36 37 38 38 38 38
41 40 40 39 38 37 36 36 37 37 37 37 36 36 36 35 34 32 31 29 28 27 25 24 23 22 21 21 22 24 24 24 24 23 23 22 20 18 16 15 14 13 12 12 11 10 10 12 17 23 27 29 30 31 33 34 36 37 39 40 40 40 41
37 37 36 35 35 35 35 35 36 36 36 36 36 36 36 35 33 30 29 28 27 25 23 21 20 20 21 23 24 25 25 25 25 24 24 23 21 18 16 16 16 15 14 13 12 12 11 11 11 14 21 26 30 32 34 36 37 38 39 40 41 42 42
36 35 34 33 33 34 34 34 34 34 34 34 35 35 34 33 32 30 28 27 26 24 21 20 20 22 23 25 27 27 27 27 26 25 25 23 21 19 17 16 17 17 16 15 14 13 13 13 13 12 15 19 23 27 31 33 34 36 38 39 41 42 43
40 38 36 35 35 35 35 34 33 33 33 33 33 33 33 33 32 31 30 29 27 26 25 25 26 28 29 30 30 30 29 28 27 26 26 24 22 20 18 17 18 18 17 17 16 16 15 16 16 15 16 17 19 22 25 26 26 28 31 33 35 36 37
43 42 41 40 39 39 37 36 34 34 34 34 34 34 34 34 33 33 33 33 33 32 32 33 33 34 34 33 32 31 30 28 27 27 26 25 23 21 20 19 19 19 19 19 19 19 19 19 19 20 20 21 22 23 24 24 24 25 27 29 30 32 32
42 42 43 43 43 42 41 40 38 37 37 36 36 36 36 37 37 37 37 37 37 37 36 36 36 36 35 34 33 31 30 28 28 28 27 26 24 23 22 22 22 21 21 21 21 21 22 22 23 24 25 25 25 26 27 27 27 27 28 30 30 31 31
44 42 42 43 43 42 41 41 41 41 41 40 39 39 39 39 40 41 42 41 40 39 38 37 37 36 35 34 33 32 31 29 28 28 28 27 26 25 25 25 24 24 24 25 25 25 25 26 27 27 28 29 29 30 30 30 30 30 31 31 32 32 33
48 46 44 43 42 41 41 41 42 43 44 44 43 41 41 42 43 44 44 44 43 41 40 39 38 37 36 35 34 33 31 29 27 27 28 29 28 27 27 27 27 28 28 29 28 28 29 30 30 30 31 32 32 32 32 32 32 32 33 33 34 34 35
45 47 48 47 46 44 43 42 42 43 43 43 43 42 41 42 43 44 45 45 45 44 42 41 39 37 36 35 33 32 29 27 27 28 29 30 29 28 28 29 30 31 31 32 32 32 34 34 32 33 35 35 35 34 34 33 33 33 34 35 35 36 37
45 46 48 49 49 47 45 44 43 42 42 41 41 41 42 43 44 45 45 45 44 43 41 39 38 36 35 34 32 29 26 26 27 29 31 31 31 30 30 31 32 33 35 37 37 37 37 35 34 36 39 39 38 37 36 35 34 34 35 36 37 37 39
44 44 44 45 46 47 46 45 43 42 41 41 41 42 42 43 43 43 42 42 41 40 39 38 37 36 35 32 29 27 26 28 30 32 32 33 32 32 32 33 35 36 38 40 40 41 38 34 35 40 42 42 41 39 38 36 35 35 36 38 38 39 40
39 41 42 43 43 44 44 44 43 42 42 42 43 43 43 43 42 41 40 40 40 40 39 39 38 37 35 32 30 30 31 32 32 33 33 33 34 35 36 37 38 39 40 40 41 40 36 35 39 42 42 43 43 41 39 37 36 37 38 38 38 38 39
36 38 38 38 39 41 42 43 44 44 44 44 45 45 44 43 41 41 41 41 41 41 41 40 40 38 36 35 34 34 35 34 34 34 35 35 37 38 39 39 39 40 39 39 40 38 36 39 43 43 41 42 43 42 40 39 39 40 40 39 39 40 41
38 39 38 38 40 42 43 44 45 45 45 46 45 45 44 43 42 42 42 42 42 41 40 40 39 38 37 36 36 36 36 35 35 35 37 38 39 40 40 40 40 39 38 38 38 38 40 43 45 43 41 40 42 43 42 41 41 42 42 42 42 43 46
41 42 42 42 43 44 44 45 46 46 46 45 44 44 43 43 43 43 43 43 43 41 40 39 38 37 37 37 37 36 36 36 36 37 38 39 40 41 41 40 40 39 38 39 39 41 44 45 45 43 42 40 42 43 43 44 45 45 44 44 45 47 51
47 46 45 45 44 43 42 43 43 43 43 43 41 41 42 42 43 43 43 43 42 41 40 39 39 38 38 38 37 37 37 38 39 40 40 41 42 42 42 42 41 41 41 42 44 45 46 45 44 43 43 42 43 44 45 47 48 48 47 47 49 52 57
52 51 49 47 44 42 41 41 40 39 40 40 39 39 39 40 42 42 42 41 40 40 40 40 40 40 39 39 38 38 39 40 41 42 43 43 44 44 44 44 44 44 44 45 46 47 46 46 45 44 44 44 45 46 48 49 50 50 50 52 55 58 61
49 49 49 46 44 42 42 43 43 44 45 44 43 43 42 42 43 43 42 40 40 40 41 42 42 42 42 41 41 41 42 43 44 44 45 46 47 47 47 47 46 46 47 47 47 48 48 47 46 46 46 47 48 49 50 52 52 53 55 57 60 62 64
45 45 45 45 46 45 45 46 47 49 50 49 49 49 47 46 46 44 43 42 42 43 44 45 45 45 45 45 45 44 44 45 45 46 48 49 49 49 49 48 47 48 49 49 49 49 49 49 49 50 51 51 52 52 53 55 56 58 60 61 63 65 67
45 44 44 45 47 47 47 47 48 49 50 51 52 51 49 48 47 46 46 46 46 47 47 47 48 49 49 48 47 46 46 46 46 48 49 49 49 49 49 49 49 50 50 50 49 50 50 51 52 53 54 55 55 56 57 58 60 62 63 65 67 68 69
46 45 44 46 48 48 48 49 49 48 47 48 51 52 50 49 49 49 50 49 49 50 50 51 50 50 49 48 46 46 46 46 47 48 50 50 50 50 51 51 51 50 49 49 50 51 52 53 54 55 56 57 59 60 61 62 63 64 66 68 70 71 72
51 49 47 47 48 48 49 50 49 47 46 46 49 51 51 50 50 50 50 50 49 50 50 51 50 48 47 46 46 46 46 47 49 50 51 52 51 51 51 51 50 50 50 50 51 52 54 55 56 57 59 61 62 63 64 65 66 67 69 72 73 74 73
54 53 52 49 46 44 45 46 46 47 48 49 51 51 51 51 50 49 49 49 49 49 48 48 48 46 45 45 46 47 48 49 50 51 52 53 52 52 52 53 54 54 54 54 55 56 57 58 60 62 64 64 65 66 67 67 68 70 73 75 75 74 70
53 53 54 53 51 49 47 48 49 49 50 51 52 51 51 50 50 51 51 51 51 51 50 49 48 47 47 47 48 49 50 51 52 53 54 55 55 57 59 60 61 60 59 59 59 60 61 63 65 66 67 68 68 69 69 70 71 74 76 76 74 70 65
53 53 53 54 54 55 55 56 56 56 55 55 54 54 54 55 55 55 55 55 55 55 53 52 51 51 51 51 52 52 53 53 54 56 57 58 60 62 64 65 65 65 64 64 64 65 66 68 69 69 69 69 70 71 72 74 77 78 76 73 69 65 62
55 55 55 55 55 56 58 58 59 58 58 57 57 58 59 59 59 59 59 59 59 59 58 57 56 55 54 53 53 54 55 56 58 59 61 62 64 66 67 67 67 68 68 68 68 69 70 70 71 70 69 70 72 74 76 78 78 75 71 68 64 62 61
57 58 59 59 59 59 60 61 61 61 60 60 61 61 62 62 62 62 63 63 63 63 63 63 62 61 60 59 59 60 61 62 63 65 67 68 70 71 71 70 70 70 70 70 70 71 71 71 71 70 71 73 75 76 77 75 73 70 67 65 63 62 61
61 62 63 63 62 63 63 64 65 64 64 64 64 65 66 66 66 66 66 67 67 67 67 68 68 68 67 67 67 67 67 68 69 71 73 75 75 75 74 73 72 72 71 71 71 72 71 70 70 70 72 73 73 73 72 70 68 67 66 64 62 62 62
63 64 65 66 66 66 66 67 68 68 67 67 67 68 69 69 69 69 70 70 71 71 71 71 71 71 72 72 71 71 72 73 74 76 78 79 78 77 76 74 73 73 73 73 73 73 72 70 70 71 71 70 70 69 68 67 67 67 67 66 64 65 65
63 64 65 66 67 68 69 70 71 71 70 69 69 71 71 70 70 71 71 72 73 73 73 74 74 74 74 74 75 75 75 77 78 80 81 81 80 79 78 76 76 76 75 75 75 74 72 71 71 71 69 69 69 68 68 70 71 71 71 70 69 69 70
64 65 65 66 67 69 70 71 72 73 72 72 72 73 73 73 72 73 73 74 75 75 76 76 76 77 77 77 78 79 80 81 82 83 84 83 83 82 81 79 79 79 78 78 78 77 75 73 72 72 71 72 72 73 75 77 76 75 74 74 73 73 73
67 68 68 69 69 70 71 72 73 74 74 74 74 75 75 75 75 75 76 76 77 78 78 79 79 80 81 82 83 85 86 86 87 87 88 87 87 87 85 83 84 85 83 81 80 79 78 77 76 76 77 77 78 79 80 80 78 77 76 75 74 74 74
70 70 71 72 73 73 74 74 75 75 76 77 77 78 78 79 79 79 79 79 80 81 82 83 84 85 86 87 89 90 90 91 91 91 91 91 90 90 88 86 86 87 87 85 83 81 80 80 79 79 79 79 79 78 78 78 78 78 77 76 75 74 74
74 74 74 75 75 76 76 77 77 78 78 79 80 80 81 82 82 83 83 84 84 85 86 88 89 90 91 92 92 93 94 95 95 94 93 93 92 90 89 87 85 85 85 84 83 82 81 81 80 79 79 79 78 77 76 77 77 78 77 77 76 76 76
77 77 77 78 78 78 79 79 80 81 81 82 83 83 84 85 85 86 87 88 88 89 90 91 92 94 95 96 96 97 98 98 98 97 95 94 93 92 90 88 85 84 82 81 80 80 80 80 80 80 80 80 79 78 78 78 78 79 79 78 78 78 78
80 80 81 81 81 81 81 82 82 83 83 84 85 86 86 87 88 89 89 90 91 92 93 93 95 96 98 99 100 100 100 100 99 98 96 94 93 91 88 86 85 83 82 82 81 81 81 81 82 82 83 83 82 81 80 80 81 81 81 80 80 80 81